EW2167 Weather Reports


Display with metric or nautical units.
time (UTC)temp
F
wind
direction
speed
MPH
gust
MPH
rain 1hr
in
rain 24hr
in
rain mn
in
humidity
%
barometer
mb
20200410103904 32 272 2.0 7.0 0.00 0.05 0.00 82 1013.6
20200410103804 32 270 2.0 7.0 0.00 0.05 0.00 82 1013.6
20200410103704 32 263 2.0 7.0 0.00 0.05 0.00 82 1013.6
20200410103603 32 264 3.0 7.0 0.00 0.05 0.00 82 1013.6
20200410103504 32 270 3.0 7.0 0.00 0.05 0.00 82 1013.5
20200410103405 32 272 3.0 8.0 0.00 0.05 0.00 82 1013.6
20200410103304 32 270 3.0 8.0 0.00 0.05 0.00 82 1013.5
20200410103203 32 269 3.0 8.0 0.00 0.05 0.00 82 1013.5
20200410103104 33 270 3.0 8.0 0.00 0.05 0.00 82 1013.5
20200410103004 33 268 3.0 9.0 0.00 0.05 0.00 82 1013.5
20200410102904 33 266 3.0 9.0 0.00 0.05 0.00 82 1013.5
20200410102804 33 266 3.0 9.0 0.00 0.05 0.00 82 1013.5
20200410102704 33 272 3.0 9.0 0.00 0.05 0.00 82 1013.5
20200410102604 33 273 3.0 9.0 0.00 0.05 0.00 82 1013.5
20200410102503 33 272 3.0 9.0 0.00 0.05 0.00 82 1013.5
20200410102404 33 275 3.0 9.0 0.00 0.05 0.00 82 1013.5
20200410102306 33 278 3.0 9.0 0.00 0.05 0.00 82 1013.5
20200410102204 33 279 3.0 9.0 0.00 0.05 0.00 82 1013.5
20200410102103 33 282 3.0 9.0 0.00 0.05 0.00 82 1013.5
20200410102008 33 288 3.0 9.0 0.00 0.05 0.00 81 1013.5
20200410101904 33 291 3.0 9.0 0.00 0.05 0.00 82 1013.4
20200410101803 33 289 3.0 9.0 0.00 0.05 0.00 81 1013.4
20200410101704 33 289 3.0 9.0 0.00 0.05 0.00 81 1013.4
20200410101604 33 289 3.0 7.0 0.00 0.05 0.00 81 1013.3
20200410101503 33 289 3.0 7.0 0.00 0.05 0.00 81 1013.3
20200410101404 33 290 3.0 7.0 0.00 0.05 0.00 81 1013.3
20200410101304 33 288 3.0 8.0 0.00 0.05 0.00 81 1013.3
20200410101204 33 287 3.0 8.0 0.00 0.05 0.00 81 1013.3
20200410101104 33 284 3.0 8.0 0.00 0.05 0.00 81 1013.3
20200410101003 33 281 3.0 8.0 0.00 0.05 0.00 81 1013.2
20200410100904 33 280 3.0 8.0 0.00 0.05 0.00 81 1013.2
20200410100804 33 282 3.0 10.0 0.00 0.05 0.00 81 1013.2
20200410100703 33 282 3.0 10.0 0.00 0.05 0.00 81 1013.2
20200410100603 33 282 3.0 10.0 0.00 0.05 0.00 81 1013.2
20200410100504 33 283 3.0 10.0 0.00 0.05 0.00 81 1013.2
20200410100404 33 280 3.0 10.0 0.00 0.05 0.00 81 1013.2
20200410100303 33 278 3.0 10.0 0.00 0.05 0.00 80 1013.1
20200410100203 33 280 3.0 10.0 0.00 0.05 0.00 80 1013.1
20200410100104 33 282 3.0 10.0 0.00 0.05 0.00 80 1013.1
20200410100004 33 284 3.0 10.0 0.00 0.05 0.00 80 1013.2
20200410095904 33 284 3.0 10.0 0.00 0.05 0.00 80 1013.2
20200410095803 33 286 3.0 8.0 0.00 0.05 0.00 80 1013.1
20200410095703 33 282 3.0 7.0 0.00 0.05 0.00 80 1013.1
20200410095604 33 280 3.0 7.0 0.00 0.05 0.00 80 1013.1
20200410095504 33 277 3.0 7.0 0.00 0.05 0.00 80 1013.1
20200410095403 33 276 3.0 7.0 0.00 0.05 0.00 81 1013.2
20200410095305 33 277 3.0 7.0 0.00 0.05 0.00 81 1013.2
20200410095204 33 278 3.0 7.0 0.00 0.05 0.00 81 1013.2
20200410095104 33 282 3.0 13.0 0.00 0.05 0.00 81 1013.0
20200410095004 33 280 3.0 13.0 0.00 0.05 0.00 81 1013.1
20200410094903 33 280 3.0 13.0 0.00 0.05 0.00 81 1013.2
20200410094805 33 280 3.0 13.0 0.00 0.05 0.00 80 1013.1
20200410094704 33 281 3.0 13.0 0.00 0.05 0.00 80 1013.1
20200410094604 33 285 4.0 13.0 0.00 0.05 0.00 80 1013.1
20200410094504 33 286 4.0 13.0 0.00 0.05 0.00 80 1013.1
20200410094404 33 288 4.0 13.0 0.00 0.05 0.00 80 1013.1
20200410094304 33 290 4.0 13.0 0.00 0.05 0.00 81 1013.1
20200410094204 33 290 3.0 13.0 0.00 0.05 0.00 81 1013.1
20200410094104 33 292 3.0 10.0 0.00 0.05 0.00 81 1013.0
20200410094005 33 294 3.0 10.0 0.00 0.05 0.00 81 1013.0
20200410093903 33 298 3.0 8.0 0.00 0.05 0.00 81 1013.0
20200410093803 33 299 3.0 7.0 0.00 0.05 0.00 81 1013.1
20200410093704 33 300 3.0 7.0 0.00 0.05 0.00 81 1013.0
20200410093604 33 302 3.0 7.0 0.00 0.05 0.00 81 1012.9
20200410093503 33 303 3.0 7.0 0.00 0.05 0.00 80 1012.9
20200410093404 34 304 3.0 7.0 0.00 0.05 0.00 80 1012.9
20200410093304 34 301 4.0 8.0 0.00 0.05 0.00 80 1012.9
20200410093204 34 301 4.0 8.0 0.00 0.05 0.00 81 1012.8
20200410093103 34 296 4.0 8.0 0.00 0.05 0.00 80 1012.8
20200410093005 34 296 4.0 8.0 0.00 0.05 0.00 80 1012.8
20200410092904 34 297 3.0 8.0 0.00 0.05 0.00 81 1012.8
20200410092804 34 299 3.0 8.0 0.00 0.05 0.00 80 1012.8
20200410092703 34 300 3.0 8.0 0.00 0.05 0.00 81 1012.8
20200410092605 34 299 3.0 8.0 0.00 0.05 0.00 81 1012.8
20200410092505 34 299 3.0 8.0 0.00 0.05 0.00 81 1012.8
20200410092404 34 298 3.0 8.0 0.00 0.05 0.00 81 1012.8
20200410092306 34 293 3.0 8.0 0.00 0.05 0.00 81 1012.7
20200410092204 34 292 3.0 7.0 0.00 0.05 0.00 81 1012.7
20200410092105 34 296 3.0 7.0 0.00 0.05 0.00 81 1012.8
20200410092005 34 298 3.0 7.0 0.00 0.05 0.00 81 1012.7
20200410091404 34 290 3.0 7.0 0.00 0.05 0.00 81 1012.6
20200410091304 34 296 3.0 7.0 0.00 0.05 0.00 81 1012.5
20200410091204 34 296 3.0 7.0 0.00 0.05 0.00 81 1012.5
20200410091104 34 295 3.0 7.0 0.00 0.05 0.00 81 1012.5
20200410091003 34 293 3.0 7.0 0.00 0.05 0.00 81 1012.6
20200410090904 34 288 3.0 7.0 0.00 0.05 0.00 81 1012.5
20200410090804 34 289 3.0 8.0 0.00 0.05 0.00 81 1012.5
20200410090704 34 288 3.0 8.0 0.00 0.05 0.00 81 1012.5
20200410090603 34 287 3.0 8.0 0.00 0.05 0.00 81 1012.5
20200410090504 34 291 3.0 8.0 0.00 0.05 0.00 81 1012.5
20200410090404 34 290 3.0 8.0 0.00 0.05 0.00 81 1012.5
20200410090304 34 288 3.0 8.0 0.00 0.05 0.00 81 1012.5
20200410090203 34 287 3.0 8.0 0.00 0.05 0.00 81 1012.4
20200410090104 34 289 3.0 8.0 0.00 0.05 0.00 81 1012.4
20200410090004 34 292 3.0 8.0 0.00 0.05 0.00 81 1012.4
20200410085904 34 297 3.0 8.0 0.00 0.05 0.00 81 1012.5
20200410085803 34 299 3.0 8.0 0.00 0.05 0.00 81 1012.5
20200410085704 34 298 3.0 8.0 0.00 0.05 0.00 81 1012.5
20200410085604 34 299 3.0 8.0 0.00 0.05 0.00 81 1012.5
20200410085504 34 295 3.0 6.0 0.00 0.05 0.00 81 1012.5
20200410085403 34 292 2.0 6.0 0.00 0.05 0.00 81 1012.4
20200410085305 34 294 3.0 6.0 0.00 0.05 0.00 81 1012.4
20200410085204 34 294 2.0 6.0 0.00 0.05 0.00 81 1012.4
20200410085104 34 291 2.0 6.0 0.00 0.05 0.00 81 1012.3
20200410085004 34 285 2.0 6.0 0.00 0.05 0.00 81 1012.3
20200410084903 34 278 2.0 6.0 0.00 0.05 0.00 81 1012.3
20200410084804 34 274 2.0 9.0 0.00 0.05 0.00 81 1012.3
20200410084704 34 276 3.0 9.0 0.00 0.05 0.00 81 1012.3
20200410084603 34 282 3.0 9.0 0.00 0.05 0.00 81 1012.3
20200410084504 34 286 3.0 9.0 0.00 0.05 0.00 81 1012.3
20200410084404 34 288 3.0 9.0 0.00 0.05 0.00 81 1012.3
20200410084304 34 287 3.0 9.0 0.00 0.05 0.00 80 1012.3
20200410084203 34 287 3.0 9.0 0.00 0.05 0.00 80 1012.3
20200410084104 34 292 3.0 9.0 0.00 0.05 0.00 80 1012.3
20200410084005 34 293 3.0 9.0 0.00 0.05 0.00 80 1012.3
20200410083904 34 297 3.0 9.0 0.00 0.05 0.00 80 1012.3
20200410083803 34 298 3.0 8.0 0.00 0.05 0.00 80 1012.3
20200410083704 34 294 3.0 8.0 0.00 0.05 0.00 80 1012.3
20200410083604 34 293 3.0 8.0 0.00 0.05 0.00 80 1012.3
20200410083503 34 290 3.0 8.0 0.00 0.05 0.00 80 1012.3
20200410083403 34 291 3.0 8.0 0.00 0.05 0.00 80 1012.3
20200410083304 34 292 3.0 8.0 0.00 0.05 0.00 80 1012.3
20200410083204 34 292 3.0 8.0 0.00 0.05 0.00 80 1012.3
20200410083104 34 288 3.0 8.0 0.00 0.05 0.00 80 1012.3
20200410083003 34 291 3.0 8.0 0.00 0.05 0.00 80 1012.3
20200410082904 34 292 3.0 8.0 0.00 0.05 0.00 80 1012.3
20200410082804 34 297 4.0 8.0 0.00 0.05 0.00 80 1012.3
20200410082704 34 300 4.0 9.0 0.00 0.05 0.00 80 1012.2
20200410082603 34 300 4.0 9.0 0.00 0.05 0.00 80 1012.2
20200410082504 34 300 4.0 9.0 0.00 0.05 0.00 80 1012.2
20200410082404 34 301 4.0 9.0 0.00 0.05 0.00 80 1012.2
20200410082306 34 302 4.0 9.0 0.00 0.05 0.00 80 1012.2
20200410082203 34 302 4.0 9.0 0.00 0.05 0.00 80 1012.2
20200410082104 34 301 4.0 9.0 0.00 0.05 0.00 80 1012.2
20200410082004 34 298 4.0 9.0 0.00 0.05 0.00 80 1012.1
20200410081904 34 299 4.0 9.0 0.00 0.05 0.00 80 1012.1
20200410081803 34 300 4.0 9.0 0.00 0.05 0.00 80 1012.1
20200410081704 34 299 4.0 9.0 0.00 0.05 0.00 80 1012.1
20200410081604 34 300 4.0 9.0 0.00 0.05 0.00 80 1012.1
20200410081504 34 302 4.0 8.0 0.00 0.05 0.00 80 1012.1
20200410081403 34 301 4.0 8.0 0.00 0.05 0.00 80 1012.1
20200410081304 35 300 4.0 8.0 0.00 0.05 0.00 80 1012.1
20200410081204 35 301 3.0 8.0 0.00 0.05 0.00 80 1012.1
20200410081104 35 304 4.0 8.0 0.00 0.05 0.00 80 1012.1
20200410081003 35 307 4.0 8.0 0.00 0.05 0.00 80 1012.1
20200410080905 35 307 4.0 13.0 0.00 0.05 0.00 80 1012.1
20200410080806 35 308 4.0 13.0 0.00 0.05 0.00 80 1012.1
20200410080704 35 309 4.0 13.0 0.00 0.05 0.00 80 1012.0
20200410080605 35 312 4.0 13.0 0.00 0.05 0.00 80 1011.9
20200410080510 35 309 4.0 13.0 0.00 0.05 0.00 80 1012.0
20200410080449 35 306 4.0 13.0 0.00 0.05 0.00 80 1012.0
20200410080435 35 304 3.0 13.0 0.00 0.05 0.00 80 1011.9
20200410080004 35 306 3.0 13.0 0.00 0.05 0.00 80 1012.0
20200410075904 35 305 4.0 10.0 0.00 0.05 0.00 80 1011.9
20200410075804 35 303 4.0 10.0 0.00 0.05 0.00 80 1012.0
20200410075704 35 301 4.0 10.0 0.00 0.05 0.00 80 1011.9
20200410075603 35 300 4.0 13.0 0.00 0.05 0.00 80 1011.9
20200410075504 35 301 4.0 13.0 0.00 0.05 0.00 80 1011.9
20200410075404 35 301 4.0 13.0 0.00 0.05 0.00 81 1011.9
20200410075306 35 301 4.0 15.0 0.00 0.05 0.00 81 1011.9
20200410075203 35 305 5.0 15.0 0.00 0.05 0.00 81 1011.9
20200410075103 35 304 5.0 15.0 0.00 0.05 0.00 81 1011.9
20200410075004 35 302 5.0 15.0 0.00 0.05 0.00 81 1011.9
20200410074904 35 302 4.0 15.0 0.00 0.05 0.00 81 1011.9
20200410074804 35 303 4.0 15.0 0.00 0.05 0.00 81 1011.8
20200410074703 35 307 4.0 15.0 0.00 0.05 0.00 81 1011.9
20200410074604 35 305 4.0 15.0 0.00 0.05 0.00 81 1011.8
20200410074504 35 308 4.0 15.0 0.00 0.05 0.00 81 1011.8
20200410074403 35 310 3.0 15.0 0.00 0.05 0.00 81 1011.8
20200410074303 35 309 3.0 13.0 0.00 0.05 0.00 81 1011.7
20200410074204 35 311 3.0 13.0 0.00 0.05 0.00 81 1011.9
20200410074104 35 318 3.0 9.0 0.00 0.05 0.00 81 1011.8
20200410074004 35 317 3.0 10.0 0.00 0.05 0.00 81 1011.8
20200410073904 35 318 3.0 10.0 0.00 0.05 0.00 81 1011.8
20200410073804 35 313 3.0 10.0 0.00 0.05 0.00 81 1011.8
20200410073705 35 315 3.0 10.0 0.00 0.05 0.00 81 1011.8
20200410073604 35 315 3.0 10.0 0.00 0.05 0.00 81 1011.7
20200410073504 35 314 3.0 10.0 0.00 0.05 0.00 82 1011.8
20200410073403 35 308 3.0 10.0 0.00 0.05 0.00 82 1011.9
20200410073304 35 312 4.0 10.0 0.00 0.05 0.00 82 1011.9
20200410073204 35 306 4.0 10.0 0.00 0.05 0.00 82 1011.8
20200410073103 35 301 4.0 10.0 0.00 0.05 0.00 82 1011.7
20200410073003 35 301 4.0 9.0 0.00 0.05 0.00 82 1011.8
20200410072904 35 301 3.0 9.0 0.00 0.05 0.00 82 1011.7
20200410072804 35 299 3.0 8.0 0.00 0.05 0.00 82 1011.7
20200410072704 35 294 4.0 8.0 0.00 0.05 0.00 82 1011.7
20200410072603 35 295 4.0 8.0 0.00 0.05 0.00 82 1011.7
20200410072504 35 296 4.0 9.0 0.00 0.05 0.00 82 1011.8
20200410072405 35 297 4.0 9.0 0.00 0.05 0.00 82 1011.8
20200410072306 35 295 4.0 9.0 0.00 0.05 0.00 82 1011.7
20200410072204 35 296 4.0 9.0 0.00 0.05 0.00 82 1011.7
20200410072104 35 299 4.0 10.0 0.00 0.05 0.00 82 1011.8
20200410072004 35 298 4.0 10.0 0.00 0.05 0.00 82 1011.7
20200410071904 35 300 4.0 10.0 0.00 0.05 0.00 83 1011.7
20200410071804 35 301 4.0 10.0 0.00 0.05 0.00 83 1011.6
20200410071703 35 301 3.0 10.0 0.00 0.05 0.00 83 1011.6
20200410071604 35 302 3.0 10.0 0.00 0.05 0.00 83 1011.6
20200410071505 35 301 3.0 10.0 0.00 0.05 0.00 83 1011.6
20200410071404 35 300 3.0 10.0 0.00 0.05 0.00 83 1011.5
20200410071303 35 300 3.0 10.0 0.00 0.05 0.00 83 1011.5
20200410071204 35 304 3.0 10.0 0.00 0.05 0.00 83 1011.6
20200410071104 35 303 3.0 6.0 0.00 0.05 0.00 83 1011.6
20200410071003 35 305 3.0 6.0 0.00 0.05 0.00 83 1011.5
20200410070903 35 309 3.0 7.0 0.00 0.05 0.00 83 1011.5
20200410070804 35 307 3.0 7.0 0.00 0.05 0.00 83 1011.5
20200410070704 35 302 3.0 7.0 0.00 0.05 0.00 83 1011.5
20200410070604 35 301 3.0 10.0 0.00 0.05 0.00 83 1011.5
20200410070503 35 303 3.0 10.0 0.00 0.05 0.00 83 1011.5
20200410070404 35 306 3.0 10.0 0.00 0.05 0.00 83 1011.4
20200410070304 35 302 3.0 10.0 0.00 0.05 0.00 83 1011.5
20200410070204 35 295 4.0 10.0 0.00 0.05 0.00 83 1011.4
20200410070103 35 296 4.0 10.0 0.00 0.05 0.00 83 1011.4
20200410070005 35 292 4.0 10.0 0.00 0.05 0.00 83 1011.5
20200410065904 35 283 4.0 10.0 0.00 0.05 0.00 83 1011.6
20200410065804 35 284 4.0 10.0 0.00 0.05 0.00 83 1011.5
20200410065704 35 288 3.0 10.0 0.00 0.05 0.00 83 1011.5
20200410065603 35 288 3.0 10.0 0.00 0.05 0.00 83 1011.5
20200410065504 35 287 3.0 10.0 0.00 0.05 0.00 83 1011.4
20200410065404 35 290 3.0 10.0 0.00 0.05 0.00 83 1011.3
20200410065304 35 289 3.0 8.0 0.00 0.05 0.00 83 1011.3
20200410065203 35 291 4.0 12.0 0.00 0.05 0.00 83 1011.3
20200410065104 35 285 3.0 12.0 0.00 0.05 0.00 84 1011.3
20200410065004 35 286 3.0 12.0 0.00 0.05 0.00 84 1011.3
20200410064903 35 290 4.0 12.0 0.00 0.05 0.00 84 1011.4
20200410064803 35 289 4.0 13.0 0.00 0.05 0.00 83 1011.3
20200410064704 35 289 4.0 13.0 0.00 0.05 0.00 83 1011.2
20200410064604 35 284 4.0 13.0 0.00 0.05 0.00 83 1011.3
20200410064504 35 284 4.0 13.0 0.00 0.05 0.00 84 1011.2
20200410064403 35 282 4.0 13.0 0.00 0.05 0.00 84 1011.3
20200410064305 35 282 4.0 13.0 0.00 0.05 0.00 84 1011.2
20200410064204 35 280 4.0 13.0 0.00 0.05 0.00 83 1011.2
20200410064104 35 282 4.0 13.0 0.00 0.05 0.00 84 1011.2
20200410064004 35 284 4.0 13.0 0.00 0.05 0.00 84 1011.2
20200410063904 35 286 4.0 13.0 0.00 0.05 0.00 84 1011.2
20200410063804 35 286 4.0 13.0 0.00 0.05 0.00 84 1011.2
20200410063704 35 286 4.0 13.0 0.00 0.05 0.00 84 1011.2
20200410063603 35 290 4.0 13.0 0.00 0.05 0.00 84 1011.1
20200410063504 35 288 4.0 13.0 0.00 0.05 0.00 84 1011.2
20200410063404 35 292 4.0 13.0 0.00 0.05 0.00 83 1011.1
20200410063304 35 293 4.0 13.0 0.00 0.05 0.00 83 1011.1
20200410063203 35 295 4.0 13.0 0.00 0.05 0.00 83 1011.1
20200410063105 35 299 4.0 12.0 0.00 0.05 0.00 83 1011.1
20200410063004 35 297 4.0 12.0 0.00 0.05 0.00 84 1011.1
20200410062904 35 295 4.0 12.0 0.00 0.05 0.00 84 1011.1
20200410062804 35 297 4.0 12.0 0.00 0.05 0.00 84 1011.1
20200410062703 35 293 3.0 12.0 0.00 0.05 0.00 84 1011.1
20200410062605 35 295 3.0 9.0 0.00 0.05 0.00 84 1011.1
20200410062504 35 294 3.0 9.0 0.00 0.05 0.00 84 1011.1
20200410062422 35 294 3.0 9.0 0.00 0.05 0.00 84 1011.0
20200410062415 35 296 3.0 9.0 0.00 0.05 0.00 84 1011.1
20200410062203 35 293 3.0 8.0 0.00 0.05 0.00 84 1011.1
20200410062105 35 291 3.0 8.0 0.00 0.05 0.00 84 1011.1
20200410062004 35 290 3.0 8.0 0.00 0.05 0.00 84 1011.0
20200410061904 35 288 3.0 9.0 0.00 0.05 0.00 84 1011.1
20200410061803 35 285 3.0 9.0 0.00 0.05 0.00 84 1011.1
20200410061704 35 286 3.0 9.0 0.00 0.05 0.00 84 1011.1
20200410061604 35 283 3.0 9.0 0.00 0.05 0.00 84 1011.0
20200410061504 35 279 3.0 9.0 0.00 0.05 0.00 83 1011.1
20200410061403 35 277 3.0 9.0 0.00 0.05 0.00 83 1011.1
20200410061304 35 278 3.0 9.0 0.00 0.05 0.00 83 1011.0
20200410061204 35 283 3.0 9.0 0.00 0.05 0.00 83 1011.0
20200410061103 35 285 3.0 9.0 0.00 0.05 0.00 83 1011.1
20200410061004 35 289 3.0 9.0 0.00 0.05 0.00 83 1011.0
20200410060904 35 291 3.0 9.0 0.00 0.05 0.00 83 1011.0
20200410060803 35 287 3.0 9.0 0.00 0.05 0.00 83 1011.0
20200410060704 35 286 3.0 9.0 0.00 0.05 0.00 83 1010.9
20200410060604 35 291 3.0 12.0 0.00 0.05 0.00 83 1010.9
20200410060504 35 290 3.0 12.0 0.00 0.05 0.00 83 1010.8
20200410060403 35 290 4.0 12.0 0.00 0.05 0.00 83 1010.8
20200410060304 35 288 4.0 12.0 0.00 0.05 0.00 83 1010.8
20200410060204 35 286 3.0 12.0 0.00 0.05 0.00 83 1010.8
20200410060104 35 284 4.0 12.0 0.00 0.05 0.00 83 1010.8
20200410060004 35 282 4.0 12.0 0.00 0.05 0.00 83 1010.8
20200410055904 35 285 3.0 12.0 0.00 0.05 0.00 83 1010.8
20200410055804 35 288 3.0 12.0 0.00 0.05 0.00 83 1010.8
20200410055703 35 289 3.0 12.0 0.00 0.05 0.00 83 1010.8
20200410055604 35 285 3.0 8.0 0.00 0.05 0.00 83 1010.8
20200410055504 35 288 3.0 9.0 0.00 0.05 0.00 83 1010.8
20200410055404 35 287 3.0 9.0 0.00 0.05 0.00 83 1010.8
20200410055303 35 288 3.0 9.0 0.00 0.05 0.00 83 1010.8
20200410055204 35 292 3.0 9.0 0.00 0.05 0.00 83 1010.8
20200410055104 35 293 3.0 9.0 0.00 0.05 0.00 83 1010.8
20200410055004 35 295 3.0 9.0 0.00 0.05 0.00 83 1010.8
20200410054903 35 289 3.0 9.0 0.00 0.05 0.00 83 1010.7
20200410054804 35 290 3.0 9.0 0.00 0.05 0.00 83 1010.7
20200410054704 35 292 3.0 13.0 0.00 0.05 0.00 83 1010.7
20200410054604 35 294 3.0 13.0 0.00 0.05 0.00 83 1010.7
20200410054503 35 295 3.0 13.0 0.00 0.05 0.00 83 1010.8
20200410054404 35 298 3.0 13.0 0.00 0.05 0.00 83 1010.7
20200410054304 35 295 3.0 13.0 0.00 0.05 0.00 83 1010.7
20200410054204 35 292 3.0 13.0 0.00 0.05 0.00 82 1010.8
20200410054104 35 294 3.0 13.0 0.00 0.05 0.00 82 1010.7
20200410054004 35 291 3.0 13.0 0.00 0.05 0.00 82 1010.7
20200410053904 35 290 4.0 13.0 0.00 0.05 0.00 82 1010.7
20200410053803 35 289 4.0 13.0 0.00 0.05 0.00 82 1010.8
20200410053704 35 285 4.0 10.0 0.00 0.05 0.00 82 1010.7
20200410053604 36 283 4.0 10.0 0.00 0.05 0.00 82 1010.7
20200410053504 36 283 4.0 10.0 0.00 0.05 0.00 82 1010.7
20200410053403 36 283 4.0 10.0 0.00 0.05 0.00 82 1010.6
20200410053304 36 281 4.0 10.0 0.00 0.05 0.00 82 1010.6
20200410053204 36 286 4.0 10.0 0.00 0.05 0.00 82 1010.6
20200410053104 36 286 4.0 10.0 0.00 0.05 0.00 82 1010.6
20200410053005 36 288 4.0 10.0 0.00 0.05 0.00 82 1010.6
20200410052903 36 286 4.0 14.0 0.00 0.05 0.00 82 1010.6
20200410052804 36 286 4.0 14.0 0.00 0.05 0.00 82 1010.6
20200410052704 36 289 4.0 14.0 0.00 0.05 0.00 82 1010.6
20200410052604 36 290 4.0 14.0 0.00 0.05 0.00 83 1010.6
20200410052504 36 291 4.0 14.0 0.00 0.05 0.00 83 1010.6
20200410052404 36 289 4.0 14.0 0.00 0.05 0.00 83 1010.6
20200410052304 36 294 4.0 14.0 0.00 0.05 0.00 83 1010.5
20200410052204 36 287 4.0 14.0 0.00 0.05 0.00 82 1010.5
20200410052103 36 287 4.0 14.0 0.00 0.05 0.00 82 1010.6
20200410052004 36 285 4.0 14.0 0.00 0.05 0.00 82 1010.5
20200410051904 36 290 3.0 9.0 0.00 0.05 0.00 82 1010.5
20200410051804 36 292 3.0 9.0 0.00 0.05 0.00 82 1010.5
20200410051703 36 294 3.0 9.0 0.00 0.05 0.00 82 1010.4
20200410051606 36 297 3.0 8.0 0.00 0.05 0.00 82 1010.4
20200410051504 36 296 3.0 8.0 0.00 0.05 0.00 82 1010.4
20200410051404 36 298 3.0 9.0 0.00 0.05 0.00 82 1010.4
20200410051304 36 292 4.0 9.0 0.00 0.05 0.00 82 1010.4
20200410051203 36 292 3.0 12.0 0.00 0.05 0.00 82 1010.3
20200410051104 36 296 3.0 12.0 0.00 0.05 0.00 82 1010.3
20200410051004 36 297 3.0 12.0 0.00 0.05 0.00 82 1010.4
20200410050904 36 297 4.0 12.0 0.00 0.05 0.00 82 1010.3
20200410050804 36 297 4.0 12.0 0.00 0.05 0.00 82 1010.4
20200410050704 36 294 4.0 12.0 0.00 0.05 0.00 82 1010.4
20200410050604 36 291 3.0 12.0 0.00 0.05 0.00 81 1010.3
20200410050506 36 292 3.0 12.0 0.00 0.05 0.00 81 1010.3
20200410050403 36 288 3.0 12.0 0.00 0.05 0.00 81 1010.3
20200410050303 36 292 3.0 12.0 0.00 0.05 0.00 81 1010.3
20200410050204 36 296 3.0 12.0 0.00 0.05 0.00 81 1010.3
20200410050104 36 293 3.0 12.0 0.00 0.05 0.00 81 1010.3
20200410050004 36 289 3.0 12.0 0.00 0.05 0.00 81 1010.3
20200410045904 36 287 3.0 12.0 0.00 0.05 0.00 81 1010.3
20200410045804 36 286 3.0 7.0 0.00 0.05 0.00 81 1010.4
20200410045704 36 289 3.0 7.0 0.00 0.05 0.00 81 1010.4
20200410045604 36 290 3.0 7.0 0.00 0.05 0.00 81 1010.4
20200410045503 36 290 3.0 7.0 0.00 0.05 0.00 81 1010.4
20200410045404 36 297 3.0 6.0 0.00 0.05 0.00 81 1010.4
20200410045304 36 296 3.0 7.0 0.00 0.05 0.00 81 1010.4
20200410045204 36 293 3.0 7.0 0.00 0.05 0.00 81 1010.3
20200410045103 36 293 3.0 7.0 0.00 0.05 0.00 81 1010.4
20200410045003 36 297 3.0 7.0 0.00 0.05 0.00 81 1010.4
20200410044904 36 300 3.0 7.0 0.00 0.05 0.00 81 1010.4
20200410044804 36 303 3.0 7.0 0.00 0.05 0.00 81 1010.4
20200410044704 36 298 3.0 7.0 0.00 0.05 0.00 81 1010.3
20200410044603 36 296 3.0 7.0 0.00 0.05 0.00 81 1010.3
20200410044504 36 295 3.0 7.0 0.00 0.05 0.00 81 1010.3
20200410044404 36 291 3.0 8.0 0.00 0.05 0.00 81 1010.3
20200410044304 36 293 3.0 8.0 0.00 0.05 0.00 81 1010.3
20200410044203 36 294 3.0 12.0 0.00 0.05 0.00 81 1010.3
20200410044104 36 292 4.0 15.0 0.00 0.05 0.00 81 1010.3
20200410044004 36 294 4.0 15.0 0.00 0.05 0.00 81 1010.3
20200410043903 36 294 4.0 15.0 0.00 0.05 0.00 81 1010.3
20200410043803 36 291 4.0 15.0 0.00 0.05 0.00 81 1010.3
20200410043704 37 292 4.0 15.0 0.00 0.05 0.00 81 1010.3
20200410043604 37 293 4.0 15.0 0.00 0.05 0.00 81 1010.3
20200410043503 37 294 4.0 15.0 0.00 0.05 0.00 81 1010.3
20200410043404 37 293 4.0 15.0 0.00 0.05 0.00 81 1010.2
20200410043304 37 294 4.0 15.0 0.00 0.05 0.00 81 1010.2
20200410043203 37 295 4.0 15.0 0.00 0.05 0.00 81 1010.2
20200410043104 37 297 4.0 15.0 0.00 0.05 0.00 81 1010.2
20200410043004 37 289 4.0 15.0 0.00 0.05 0.00 81 1010.0
20200410042904 37 290 4.0 15.0 0.00 0.05 0.00 81 1010.0
20200410042803 37 292 4.0 15.0 0.00 0.05 0.00 81 1010.1
20200410042704 37 291 4.0 15.0 0.00 0.05 0.00 81 1010.0
20200410042604 37 287 4.0 15.0 0.00 0.05 0.00 81 1010.0
20200410042503 37 283 4.0 15.0 0.00 0.05 0.00 82 1009.9
20200410042404 37 284 4.0 15.0 0.00 0.05 0.00 82 1009.9
20200410042304 37 277 3.0 15.0 0.00 0.05 0.00 82 1009.8
20200410042204 37 273 3.0 15.0 0.00 0.05 0.00 83 1009.8
20200410042104 37 273 3.0 8.0 0.00 0.05 0.00 83 1009.9
20200410042004 37 277 3.0 9.0 0.00 0.05 0.00 83 1009.9
20200410041904 37 270 3.0 9.0 0.00 0.05 0.00 84 1009.9
20200410041803 37 271 3.0 9.0 0.00 0.05 0.00 84 1009.9
20200410041704 37 270 3.0 9.0 0.00 0.05 0.00 84 1009.9
20200410041604 37 273 3.0 9.0 0.00 0.05 0.00 84 1009.9
20200410041504 37 271 4.0 9.0 0.00 0.05 0.00 83 1009.8
20200410041403 37 266 3.0 9.0 0.00 0.05 0.00 84 1009.9
20200410041304 38 266 4.0 9.0 0.00 0.05 0.00 84 1009.9
20200410041204 37 265 4.0 9.0 0.00 0.05 0.00 85 1009.9
20200410041104 38 264 3.0 9.0 0.00 0.05 0.00 85 1009.9
20200410041004 38 264 3.0 7.0 0.00 0.05 0.00 85 1010.0
20200410040904 38 263 3.0 7.0 0.00 0.05 0.00 85 1009.9
20200410040804 38 257 3.0 8.0 0.00 0.05 0.00 85 1009.9
20200410040704 38 257 3.0 8.0 0.00 0.05 0.00 85 1010.0
20200410040603 38 256 4.0 8.0 0.00 0.05 0.00 85 1010.0
20200410040504 38 261 4.0 10.0 0.00 0.05 0.00 85 1009.9
20200410040404 38 264 4.0 10.0 0.00 0.05 0.00 85 1010.0
20200410040304 38 268 4.0 10.0 0.00 0.05 0.00 85 1010.0
20200410040204 38 267 4.0 13.0 0.00 0.05 0.00 84 1009.9
20200410040104 38 264 4.0 13.0 0.00 0.05 0.00 84 1009.9
20200410040004 38 262 4.0 13.0 0.00 0.05 0.00 84 1010.0
20200410035903 38 266 4.0 13.0 0.00 0.05 0.05 85 1010.0
20200410035804 38 270 4.0 13.0 0.00 0.05 0.05 85 1010.0
20200410035704 38 273 4.0 13.0 0.00 0.05 0.05 85 1010.0
20200410035604 38 273 4.0 13.0 0.00 0.05 0.05 85 1010.1
20200410035504 38 273 4.0 13.0 0.00 0.05 0.05 86 1010.1
20200410035403 38 277 4.0 13.0 0.00 0.05 0.05 86 1010.1
20200410035304 38 275 4.0 13.0 0.00 0.05 0.05 86 1010.1
20200410035204 38 277 4.0 13.0 0.00 0.05 0.05 86 1010.1
20200410035103 38 276 4.0 14.0 0.00 0.05 0.05 86 1010.1
20200410035003 38 280 4.0 14.0 0.00 0.05 0.05 86 1010.1
20200410034904 38 278 5.0 14.0 0.00 0.05 0.05 86 1010.2
20200410034804 38 276 5.0 14.0 0.00 0.05 0.05 87 1010.2
20200410034704 38 275 4.0 14.0 0.00 0.05 0.05 87 1010.2
20200410034604 38 278 4.0 14.0 0.00 0.05 0.05 87 1010.3
20200410034504 38 275 4.0 14.0 0.00 0.05 0.05 87 1010.1
20200410034404 37 274 4.0 14.0 0.00 0.05 0.05 88 1010.1
20200410034304 37 273 4.0 14.0 0.00 0.06 0.05 88 1010.0
20200410034203 37 274 4.0 14.0 0.00 0.06 0.05 88 1010.1
20200410034105 37 280 3.0 10.0 0.00 0.06 0.05 89 1010.1
20200410034005 37 274 3.0 10.0 0.00 0.06 0.05 89 1010.1
20200410033904 37 277 3.0 10.0 0.00 0.06 0.05 89 1010.1
20200410033803 37 276 3.0 10.0 0.00 0.07 0.05 89 1010.2
20200410033704 37 274 3.0 10.0 0.00 0.07 0.05 89 1010.1
20200410033604 37 269 3.0 10.0 0.00 0.07 0.05 89 1010.1
20200410033504 37 271 3.0 7.0 0.00 0.08 0.05 89 1010.1
20200410033404 37 267 3.0 7.0 0.00 0.08 0.05 89 1010.0
20200410033304 37 264 3.0 7.0 0.00 0.09 0.05 89 1010.0
20200410033204 37 265 3.0 7.0 0.00 0.09 0.05 89 1010.0
20200410033104 37 258 3.0 8.0 0.00 0.10 0.05 89 1010.0
20200410033004 37 260 3.0 8.0 0.01 0.10 0.05 89 1010.0
20200410032903 37 260 3.0 8.0 0.01 0.11 0.05 88 1010.0
20200410032804 37 259 3.0 8.0 0.01 0.11 0.05 89 1010.0
20200410032704 37 260 3.0 8.0 0.01 0.11 0.05 89 1009.9
20200410032604 37 263 3.0 8.0 0.02 0.12 0.05 89 1010.0
20200410032504 38 260 3.0 8.0 0.02 0.12 0.05 89 1010.0
20200410032404 38 266 3.0 8.0 0.02 0.12 0.05 89 1010.0
20200410032304 38 268 3.0 8.0 0.02 0.13 0.05 89 1010.0
20200410032204 38 268 3.0 8.0 0.02 0.13 0.05 89 1010.0
20200410032104 38 271 3.0 7.0 0.02 0.13 0.05 89 1010.0
20200410032004 38 271 3.0 7.0 0.03 0.14 0.05 88 1010.0
20200410031904 38 273 3.0 7.0 0.03 0.14 0.05 88 1010.0
20200410031803 38 273 3.0 6.0 0.03 0.14 0.05 89 1010.0
20200410031704 38 271 3.0 6.0 0.03 0.14 0.05 89 1010.0
20200410031604 38 273 2.0 6.0 0.03 0.15 0.05 89 1010.0
20200410031504 38 276 2.0 6.0 0.03 0.15 0.05 88 1010.0
20200410031403 38 270 3.0 6.0 0.03 0.15 0.05 88 1009.9
20200410031304 38 273 2.0 8.0 0.03 0.15 0.05 88 1009.9
20200410031204 38 272 2.0 8.0 0.03 0.16 0.05 88 1009.8
20200410031104 38 276 2.0 8.0 0.03 0.16 0.05 88 1009.8
20200410031003 38 275 2.0 8.0 0.03 0.17 0.05 88 1009.8
20200410030904 38 277 2.0 8.0 0.03 0.17 0.05 88 1009.7
20200410030804 38 281 2.0 8.0 0.03 0.18 0.05 88 1009.8
20200410030704 38 287 3.0 8.0 0.03 0.18 0.05 88 1009.8
20200410030604 38 290 3.0 8.0 0.03 0.19 0.05 88 1009.9
20200410030504 38 294 3.0 8.0 0.03 0.19 0.05 88 1009.9
20200410030404 38 302 2.0 8.0 0.03 0.20 0.05 88 1009.9
20200410030306 38 307 3.0 7.0 0.03 0.20 0.05 88 1010.1
20200410030228 38 310 3.0 7.0 0.03 0.21 0.05 88 1010.2
20200410030156 38 305 2.0 7.0 0.03 0.21 0.05 88 1010.3
20200410030004 38 310 2.0 7.0 0.03 0.22 0.05 88 1010.4
20200410025904 38 308 2.0 7.0 0.03 0.22 0.05 88 1010.4
20200410025803 38 312 2.0 7.0 0.03 0.23 0.05 88 1010.4
20200410025704 38 307 2.0 7.0 0.03 0.24 0.05 88 1010.4
20200410025604 38 308 2.0 7.0 0.03 0.25 0.05 88 1010.3
20200410025503 38 307 3.0 8.0 0.03 0.25 0.05 88 1010.3
20200410025403 38 305 3.0 8.0 0.03 0.26 0.05 88 1010.2
20200410025304 38 303 3.0 13.0 0.03 0.26 0.05 88 1010.2
20200410025204 38 301 3.0 13.0 0.03 0.27 0.05 88 1010.3
20200410025105 38 302 4.0 13.0 0.03 0.28 0.05 88 1010.3
20200410025004 38 298 4.0 13.0 0.03 0.29 0.05 88 1010.3
20200410024904 38 298 4.0 13.0 0.03 0.29 0.05 88 1010.3
20200410024804 38 295 4.0 13.0 0.03 0.29 0.05 88 1010.3
20200410024704 38 294 4.0 13.0 0.03 0.30 0.05 88 1010.3
20200410024603 38 289 4.0 13.0 0.03 0.30 0.05 88 1010.2
20200410024504 38 288 4.0 13.0 0.03 0.31 0.05 88 1010.2
20200410024404 38 287 4.0 13.0 0.03 0.32 0.05 87 1010.1
20200410024304 38 284 4.0 10.0 0.03 0.33 0.05 87 1010.2
20200410024203 38 284 4.0 17.0 0.03 0.33 0.05 87 1010.1
20200410024104 38 284 4.0 17.0 0.03 0.34 0.05 87 1010.2
20200410024004 38 286 4.0 17.0 0.03 0.35 0.05 87 1010.3
20200410023904 38 285 4.0 17.0 0.03 0.35 0.05 87 1010.4
20200410023804 38 285 4.0 17.0 0.03 0.36 0.05 87 1010.3
20200410023704 38 291 4.0 17.0 0.03 0.36 0.05 87 1010.4
20200410023604 38 295 4.0 17.0 0.03 0.37 0.05 87 1010.3
20200410023504 39 297 4.0 17.0 0.03 0.38 0.05 87 1010.4
20200410023404 39 297 4.0 17.0 0.03 0.39 0.05 87 1010.4
20200410023304 39 299 4.0 17.0 0.03 0.39 0.05 86 1010.5
20200410023205 39 300 4.0 15.0 0.03 0.40 0.05 86 1010.5
20200410023103 39 302 5.0 15.0 0.02 0.40 0.04 86 1010.4
20200410023004 39 298 5.0 15.0 0.02 0.40 0.04 86 1010.4
20200410022904 39 302 5.0 15.0 0.02 0.40 0.04 86 1010.4
20200410022804 39 301 5.0 15.0 0.02 0.41 0.04 86 1010.4
20200410022703 39 296 6.0 18.0 0.01 0.40 0.03 86 1010.4
20200410022603 39 290 6.0 18.0 0.01 0.41 0.03 86 1010.4
20200410022504 39 288 5.0 18.0 0.01 0.42 0.03 86 1010.4
20200410022404 39 287 5.0 18.0 0.01 0.42 0.03 86 1010.3
20200410022304 39 284 4.0 18.0 0.01 0.43 0.03 86 1010.3
20200410022204 39 280 4.0 18.0 0.01 0.45 0.03 87 1010.3
20200410022104 39 277 3.0 18.0 0.00 0.45 0.02 87 1010.3
20200410022004 39 280 3.0 18.0 0.00 0.47 0.02 87 1010.3
20200410021904 39 275 2.0 18.0 0.00 0.51 0.02 87 1010.4
20200410021803 39 273 2.0 18.0 0.00 0.53 0.02 88 1010.2
20200410021704 39 277 1.0 9.0 0.00 0.55 0.02 88 1010.2
20200410021604 39 293 1.0 5.0 0.00 0.59 0.02 88 1010.2
20200410021504 39 296 1.0 5.0 0.00 0.60 0.02 88 1010.2
20200410021404 39 304 1.0 5.0 0.00 0.62 0.02 88 1010.1
20200410021304 39 312 1.0 5.0 0.00 0.62 0.02 87 1010.1
20200410021204 39 325 1.0 3.0 0.00 0.62 0.02 87 1010.0
20200410021106 39 325 1.0 3.0 0.00 0.62 0.02 87 1010.0
20200410021004 39 325 1.0 2.0 0.00 0.62 0.02 87 1010.0
20200410020904 39 325 0.0 2.0 0.00 0.62 0.02 87 1010.0
20200410020804 39 325 0.0 2.0 0.00 0.62 0.02 87 1009.9
20200410020704 39 325 0.0 2.0 0.00 0.62 0.02 87 1009.8
20200410020604 39 325 0.0 2.0 0.00 0.62 0.02 87 1009.9
20200410020504 39 325 0.0 2.0 0.00 0.62 0.02 87 1009.8
20200410020404 39 326 0.0 2.0 0.00 0.62 0.02 87 1009.8
20200410020303 39 326 0.0 2.0 0.00 0.62 0.02 87 1009.8
20200410020203 39 326 0.0 2.0 0.00 0.62 0.02 87 1009.8
20200410020104 39 326 0.0 2.0 0.00 0.62 0.02 87 1009.8
20200410020005 39 326 0.0 1.0 0.00 0.62 0.02 87 1009.8
20200410015904 39 326 0.0 1.0 0.00 0.62 0.02 87 1009.9
20200410015803 39 326 0.0 1.0 0.00 0.62 0.02 87 1009.9
20200410015704 39 326 1.0 2.0 0.00 0.62 0.02 87 1009.8
20200410015604 39 326 1.0 3.0 0.00 0.62 0.02 87 1009.9
20200410015504 39 328 1.0 3.0 0.00 0.62 0.02 87 1009.9
20200410015403 39 330 1.0 3.0 0.00 0.62 0.02 87 1009.9
20200410015303 39 333 1.0 3.0 0.00 0.62 0.02 86 1009.9
20200410015204 39 335 1.0 3.0 0.00 0.62 0.02 86 1009.9
20200410015104 39 335 1.0 3.0 0.01 0.62 0.02 86 1009.9
20200410015004 39 337 1.0 3.0 0.01 0.62 0.02 87 1009.9
20200410014904 39 338 1.0 3.0 0.01 0.62 0.02 87 1009.9
20200410014804 39 338 1.0 3.0 0.01 0.62 0.02 87 1009.9
20200410014704 39 341 1.0 3.0 0.01 0.62 0.02 87 1009.9
20200410014604 39 345 1.0 2.0 0.01 0.62 0.02 86 1009.8
20200410014504 39 345 1.0 2.0 0.01 0.62 0.02 86 1009.8
20200410014404 39 345 1.0 2.0 0.01 0.62 0.02 86 1009.8
20200410014304 39 345 1.0 2.0 0.01 0.62 0.02 86 1009.8
20200410014204 39 345 1.0 2.0 0.01 0.62 0.02 86 1009.9
20200410014103 39 345 1.0 2.0 0.01 0.62 0.02 86 1009.9
20200410014004 39 345 1.0 2.0 0.01 0.62 0.02 85 1009.9
20200410013904 39 345 1.0 2.0 0.01 0.62 0.02 85 1009.9
20200410013804 39 345 1.0 3.0 0.01 0.62 0.02 85 1009.8
20200410013705 39 345 1.0 3.0 0.02 0.62 0.02 85 1009.8
20200410013604 39 345 1.0 3.0 0.02 0.62 0.02 85 1009.8
20200410013504 39 345 2.0 3.0 0.02 0.62 0.02 84 1009.7
20200410013404 39 344 2.0 5.0 0.02 0.62 0.02 84 1009.7
20200410013304 39 342 2.0 5.0 0.02 0.62 0.02 84 1009.7
20200410013204 39 341 3.0 7.0 0.02 0.62 0.02 84 1009.7
20200410013104 39 341 3.0 7.0 0.02 0.62 0.02 84 1009.6
20200410013004 39 343 3.0 7.0 0.02 0.62 0.02 84 1009.7
20200410012905 40 343 3.0 7.0 0.02 0.62 0.02 84 1009.7
20200410012804 40 343 3.0 7.0 0.02 0.62 0.02 84 1009.7
20200410012704 40 341 4.0 7.0 0.02 0.62 0.02 84 1009.7
20200410012604 40 339 4.0 7.0 0.02 0.62 0.02 84 1009.7
20200410012504 40 338 4.0 7.0 0.02 0.62 0.02 83 1009.7
20200410012404 40 337 3.0 7.0 0.02 0.62 0.02 83 1009.8
20200410012304 40 336 3.0 7.0 0.02 0.62 0.02 83 1009.7
20200410012204 40 336 3.0 7.0 0.02 0.62 0.02 84 1009.8
20200410012104 40 333 3.0 7.0 0.02 0.62 0.02 84 1009.8
20200410012004 40 330 3.0 7.0 0.02 0.62 0.02 84 1009.8
20200410011903 40 329 2.0 7.0 0.02 0.62 0.02 84 1009.8
20200410011819 40 327 2.0 6.0 0.02 0.62 0.02 84 1009.9
20200410011704 40 326 2.0 5.0 0.02 0.62 0.02 84 1009.8
20200410011604 40 328 2.0 5.0 0.02 0.62 0.02 84 1009.8
20200410011504 40 329 2.0 5.0 0.02 0.62 0.02 84 1009.8
20200410011404 40 329 2.0 5.0 0.02 0.62 0.02 84 1009.8
20200410011304 40 331 2.0 6.0 0.02 0.62 0.02 84 1009.9
20200410011204 40 331 2.0 6.0 0.02 0.62 0.02 84 1009.8
20200410011104 40 331 2.0 6.0 0.02 0.62 0.02 83 1009.9
20200410011004 40 333 3.0 9.0 0.02 0.62 0.02 83 1009.9
20200410010907 40 332 3.0 9.0 0.02 0.62 0.02 83 1009.8
20200410010704 40 333 3.0 9.0 0.02 0.62 0.02 83 1009.8
20200410010604 40 335 3.0 9.0 0.02 0.62 0.02 83 1009.8
20200410010504 40 334 3.0 9.0 0.02 0.62 0.02 83 1009.8
20200410010403 40 333 3.0 9.0 0.02 0.62 0.02 83 1009.8
20200410010304 40 332 3.0 9.0 0.02 0.62 0.02 83 1009.8
20200410010204 40 333 3.0 9.0 0.02 0.62 0.02 83 1009.9
20200410010104 40 333 3.0 9.0 0.02 0.62 0.02 83 1009.8
20200410010003 40 332 3.0 8.0 0.02 0.62 0.02 83 1010.0
20200410005904 40 334 3.0 6.0 0.02 0.62 0.02 82 1009.9
20200410005804 40 335 3.0 6.0 0.02 0.62 0.02 83 1009.9
20200410005704 40 336 3.0 6.0 0.02 0.62 0.02 83 1009.9
20200410005603 40 336 3.0 7.0 0.02 0.62 0.02 83 1009.9
20200410005504 40 337 3.0 7.0 0.02 0.62 0.02 83 1009.9
20200410005404 40 335 3.0 7.0 0.02 0.62 0.02 82 1009.9
20200410005304 40 334 4.0 7.0 0.02 0.62 0.02 82 1009.9
20200410005204 40 336 4.0 9.0 0.02 0.62 0.02 82 1009.8
20200410005104 40 335 4.0 10.0 0.01 0.61 0.01 82 1009.8
20200410005004 40 333 5.0 10.0 0.01 0.61 0.01 82 1009.8
20200410004904 40 333 5.0 10.0 0.01 0.61 0.01 81 1009.7
20200410004804 40 332 5.0 15.0 0.01 0.61 0.01 81 1009.6
20200410004703 40 330 5.0 15.0 0.01 0.61 0.01 81 1009.7
20200410004604 40 327 6.0 15.0 0.01 0.61 0.01 81 1009.6
20200410004504 40 328 6.0 15.0 0.01 0.61 0.01 80 1009.6
20200410004404 41 329 6.0 15.0 0.01 0.61 0.01 79 1009.6
20200410004304 41 329 6.0 15.0 0.01 0.61 0.01 79 1009.6
20200410004204 41 327 6.0 15.0 0.01 0.61 0.01 79 1009.6
20200410004104 41 326 6.0 15.0 0.01 0.61 0.01 79 1009.6
20200410004003 41 327 6.0 15.0 0.01 0.61 0.01 78 1009.6
20200410003903 41 325 6.0 15.0 0.01 0.61 0.01 78 1009.6
20200410003804 41 327 6.0 15.0 0.01 0.61 0.01 79 1009.6
20200410003704 41 327 6.0 15.0 0.00 0.60 0.00 78 1009.6
20200410003604 41 327 6.0 15.0 0.00 0.60 0.00 78 1009.6
20200410003504 41 327 6.0 15.0 0.00 0.60 0.00 78 1009.6
20200410003404 41 325 6.0 15.0 0.00 0.60 0.00 77 1009.6
20200410003304 41 326 7.0 14.0 0.00 0.60 0.00 77 1009.7
20200410003204 42 331 7.0 19.0 0.00 0.60 0.00 77 1009.6
20200410003103 42 332 7.0 19.0 0.00 0.60 0.00 76 1009.5
20200410003005 42 331 8.0 19.0 0.00 0.60 0.00 75 1009.5
20200410002904 42 332 8.0 21.0 0.00 0.60 0.00 76 1009.6
20200410002804 42 329 8.0 21.0 0.00 0.60 0.00 75 1009.6
20200410002704 42 327 8.0 21.0 0.00 0.60 0.00 74 1009.5
20200410002604 42 327 8.0 21.0 0.00 0.60 0.00 74 1009.5
20200410002504 42 326 8.0 21.0 0.00 0.60 0.00 73 1009.4
20200410002404 43 324 8.0 21.0 0.00 0.60 0.00 73 1009.3
20200410002303 43 323 7.0 21.0 0.00 0.60 0.00 72 1009.3
20200410002204 43 316 6.0 21.0 0.00 0.60 0.00 71 1009.4
20200410002104 43 314 6.0 21.0 0.00 0.60 0.00 71 1009.2
20200410002007 43 312 5.0 21.0 0.00 0.60 0.00 70 1009.2
20200410001903 43 309 4.0 14.0 0.00 0.60 0.00 70 1009.2
20200410001804 43 309 4.0 13.0 0.00 0.60 0.00 69 1009.2
20200410001704 43 309 4.0 14.0 0.00 0.60 0.00 68 1009.1
20200410001604 43 306 4.0 14.0 0.00 0.60 0.00 68 1009.2
20200410001504 43 304 4.0 14.0 0.00 0.60 0.00 68 1009.1
20200410001404 43 307 4.0 14.0 0.00 0.60 0.00 68 1009.0
20200410001304 43 306 4.0 14.0 0.00 0.60 0.00 67 1009.0
20200410001204 44 308 5.0 14.0 0.00 0.60 0.00 67 1009.0
20200410001107 44 308 5.0 15.0 0.00 0.60 0.00 67 1009.0
20200410001004 44 308 6.0 16.0 0.00 0.60 0.00 66 1009.0
20200410000904 44 307 6.0 16.0 0.00 0.60 0.00 67 1009.1
20200410000807 44 308 6.0 16.0 0.00 0.60 0.00 66 1009.0
20200410000703 44 308 6.0 16.0 0.00 0.60 0.00 66 1009.1
20200410000604 44 307 6.0 16.0 0.00 0.60 0.00 66 1009.1
20200410000504 44 308 6.0 16.0 0.00 0.60 0.00 65 1009.1
20200410000404 44 308 6.0 16.0 0.00 0.60 0.00 65 1009.0
20200410000304 44 308 6.0 16.0 0.00 0.60 0.00 65 1009.0
20200410000204 44 307 6.0 16.0 0.00 0.60 0.00 65 1009.0
20200410000104 44 306 5.0 16.0 0.00 0.60 0.00 65 1009.0
20200410000004 44 307 5.0 14.0 0.00 0.60 0.00 65 1009.0
20200409235904 44 308 5.0 14.0 0.00 0.60 0.00 65 1009.0
20200409235804 44 306 5.0 14.0 0.00 0.60 0.00 66 1009.0
20200409235704 44 307 5.0 10.0 0.00 0.60 0.00 64 1009.0
20200409235604 44 310 5.0 10.0 0.00 0.60 0.00 64 1008.9
20200409235505 44 310 5.0 12.0 0.00 0.60 0.00 64 1008.9
20200409235404 44 309 5.0 12.0 0.00 0.60 0.00 64 1008.8
20200409235304 44 308 5.0 12.0 0.00 0.60 0.00 64 1008.9
20200409235204 44 308 5.0 12.0 0.00 0.60 0.00 63 1008.9
20200409235105 44 311 5.0 12.0 0.00 0.60 0.00 63 1008.9
20200409235004 44 308 6.0 16.0 0.00 0.60 0.00 63 1008.9
20200409234904 44 308 6.0 17.0 0.00 0.60 0.00 63 1008.8
20200409234804 44 312 6.0 17.0 0.00 0.60 0.00 63 1008.8
20200409234704 44 312 6.0 17.0 0.00 0.60 0.00 63 1008.8
20200409234604 44 310 6.0 17.0 0.00 0.60 0.00 63 1008.7
20200409234504 45 312 6.0 17.0 0.00 0.60 0.00 63 1008.8
20200409234403 45 312 6.0 17.0 0.00 0.60 0.00 63 1008.7
20200409234304 45 314 6.0 17.0 0.00 0.60 0.00 62 1008.7
20200409234204 45 316 6.0 17.0 0.00 0.60 0.00 62 1008.7
20200409234104 45 314 6.0 17.0 0.00 0.60 0.00 62 1008.6
20200409234004 45 315 5.0 17.0 0.00 0.60 0.00 62 1008.7
20200409233904 45 319 6.0 17.0 0.00 0.60 0.00 61 1008.6
20200409233804 45 319 6.0 17.0 0.00 0.60 0.00 61 1008.6
20200409233704 45 322 6.0 17.0 0.00 0.60 0.00 61 1008.6
20200409233604 45 324 6.0 12.0 0.00 0.60 0.00 60 1008.6
20200409233504 45 322 6.0 12.0 0.00 0.60 0.00 60 1008.6
20200409233404 45 323 7.0 12.0 0.00 0.60 0.00 61 1008.5
20200409233304 45 324 7.0 13.0 0.00 0.60 0.00 59 1008.5
20200409233204 46 322 7.0 13.0 0.00 0.60 0.00 59 1008.5
20200409233103 46 324 7.0 13.0 0.00 0.60 0.00 58 1008.4
20200409233004 46 325 7.0 13.0 0.00 0.60 0.00 57 1008.4
20200409232904 46 323 7.0 22.0 0.00 0.60 0.00 57 1008.4
20200409232804 46 323 7.0 22.0 0.00 0.60 0.00 56 1008.3
20200409232703 46 321 7.0 22.0 0.00 0.60 0.00 56 1008.2
20200409232604 46 321 7.0 22.0 0.00 0.60 0.00 56 1008.4
20200409232504 46 322 7.0 22.0 0.00 0.60 0.00 55 1008.4
20200409232404 46 323 7.0 22.0 0.00 0.60 0.00 56 1008.4
20200409232303 46 321 7.0 22.0 0.00 0.60 0.00 54 1008.4
20200409232204 46 322 7.0 22.0 0.00 0.60 0.00 54 1008.2
20200409232104 46 320 7.0 22.0 0.00 0.60 0.00 54 1008.2
20200409232004 47 321 7.0 22.0 0.00 0.60 0.00 53 1008.2
20200409231905 47 318 7.0 22.0 0.00 0.60 0.00 53 1008.2
20200409231804 47 314 7.0 15.0 0.00 0.60 0.00 53 1008.2
20200409231704 47 313 7.0 15.0 0.00 0.60 0.00 52 1008.2
20200409231604 47 312 7.0 16.0 0.00 0.60 0.00 52 1008.1
20200409231504 47 312 7.0 16.0 0.00 0.60 0.00 52 1008.1
20200409231404 47 309 7.0 16.0 0.00 0.60 0.00 52 1008.0
20200409231304 47 305 7.0 16.0 0.00 0.60 0.00 51 1007.9
20200409231204 47 302 7.0 16.0 0.00 0.60 0.00 51 1007.9
20200409231103 47 302 7.0 16.0 0.00 0.60 0.00 51 1007.9
20200409231004 48 301 7.0 16.0 0.00 0.60 0.00 50 1007.9
20200409230904 48 300 6.0 16.0 0.00 0.60 0.00 50 1007.8
20200409230804 48 300 7.0 16.0 0.00 0.60 0.00 50 1007.8
20200409230704 48 302 6.0 16.0 0.00 0.60 0.00 48 1007.9
20200409230603 48 299 6.0 14.0 0.00 0.60 0.00 46 1007.9
20200409230504 48 298 6.0 14.0 0.00 0.60 0.00 47 1007.8
20200409230404 48 298 6.0 14.0 0.00 0.60 0.00 47 1007.8
20200409230304 48 303 6.0 14.0 0.00 0.60 0.00 47 1007.9
20200409230203 48 306 6.0 14.0 0.00 0.60 0.00 47 1007.9
20200409230104 48 304 6.0 14.0 0.00 0.60 0.00 47 1007.9
20200409230004 48 303 5.0 14.0 0.00 0.60 0.00 47 1008.1
20200409225904 48 302 5.0 14.0 0.00 0.60 0.00 46 1007.9
20200409225803 48 300 5.0 14.0 0.00 0.60 0.00 48 1007.9
20200409225704 48 294 5.0 13.0 0.00 0.60 0.00 49 1007.9
20200409225604 48 296 5.0 13.0 0.00 0.60 0.00 46 1007.9
20200409225406 48 295 4.0 13.0 0.00 0.60 0.00 46 1007.9
20200409225304 49 295 5.0 13.0 0.00 0.60 0.00 46 1007.8
20200409225204 49 289 5.0 14.0 0.00 0.60 0.00 46 1007.8
20200409225104 49 290 5.0 16.0 0.00 0.60 0.00 47 1007.8
20200409225003 49 293 5.0 16.0 0.00 0.60 0.00 46 1007.8
20200409224904 49 295 6.0 16.0 0.00 0.60 0.00 45 1007.7
20200409224804 49 299 6.0 16.0 0.00 0.60 0.00 45 1007.7
20200409224704 49 303 6.0 16.0 0.00 0.60 0.00 46 1007.7
20200409224604 49 305 7.0 19.0 0.00 0.60 0.00 45 1007.7
20200409224504 49 305 6.0 19.0 0.00 0.60 0.00 46 1007.7
20200409224404 49 306 6.0 19.0 0.00 0.60 0.00 45 1007.7
20200409224304 49 306 6.0 19.0 0.00 0.60 0.00 44 1007.7
20200409224203 49 309 5.0 19.0 0.00 0.60 0.00 45 1007.7
20200409224104 49 310 5.0 19.0 0.00 0.60 0.00 45 1007.7
20200409224004 49 304 5.0 19.0 0.00 0.60 0.00 45 1007.7
20200409223904 49 301 5.0 19.0 0.00 0.60 0.00 45 1007.7
20200409223804 49 295 4.0 19.0 0.00 0.60 0.00 45 1007.7
20200409223704 49 288 4.0 19.0 0.00 0.60 0.00 44 1007.7
20200409223604 49 277 4.0 15.0 0.00 0.60 0.00 47 1007.8
20200409223504 49 271 5.0 15.0 0.00 0.60 0.00 45 1007.7
20200409223403 49 272 5.0 19.0 0.00 0.60 0.00 46 1007.7
20200409223304 49 271 5.0 19.0 0.00 0.60 0.00 45 1007.7
20200409223204 49 268 5.0 19.0 0.00 0.60 0.00 45 1007.6
20200409223104 50 270 5.0 19.0 0.00 0.60 0.00 45 1007.7
20200409223004 50 271 4.0 19.0 0.00 0.60 0.00 46 1007.7
20200409222903 50 270 5.0 19.0 0.00 0.60 0.00 45 1007.7
20200409222804 50 275 5.0 19.0 0.00 0.60 0.00 46 1007.6
20200409222704 50 278 5.0 19.0 0.00 0.60 0.00 46 1007.5
20200409222604 49 286 5.0 19.0 0.00 0.60 0.00 45 1007.5
20200409222504 49 288 4.0 19.0 0.00 0.60 0.00 48 1007.5
20200409222404 49 291 5.0 13.0 0.00 0.60 0.00 48 1007.5
20200409222304 49 295 5.0 13.0 0.00 0.60 0.00 45 1007.6
20200409222204 49 300 5.0 16.0 0.00 0.60 0.00 45 1007.6
20200409222104 49 299 5.0 16.0 0.00 0.60 0.00 44 1007.6
20200409222003 49 297 5.0 16.0 0.00 0.60 0.00 43 1007.6
20200409221904 49 295 4.0 16.0 0.00 0.60 0.00 44 1007.5
20200409221804 49 295 4.0 16.0 0.00 0.60 0.00 45 1007.6
20200409221704 49 297 4.0 16.0 0.00 0.60 0.00 43 1007.6
20200409221603 50 291 4.0 16.0 0.00 0.60 0.00 44 1007.7
20200409221506 50 290 4.0 16.0 0.00 0.60 0.00 45 1007.6
20200409221404 50 287 5.0 16.0 0.00 0.60 0.00 44 1007.6
20200409221304 50 283 5.0 17.0 0.00 0.60 0.00 45 1007.6
20200409221203 50 279 5.0 17.0 0.00 0.60 0.00 45 1007.6
20200409221104 50 278 6.0 18.0 0.00 0.60 0.00 46 1007.6
20200409221004 50 282 6.0 18.0 0.00 0.60 0.00 44 1007.6
20200409220904 50 287 6.0 18.0 0.00 0.60 0.00 43 1007.6
20200409220804 50 287 6.0 18.0 0.00 0.60 0.00 42 1007.5
20200409220704 50 289 7.0 18.0 0.00 0.60 0.00 43 1007.6
20200409220605 50 293 7.0 18.0 0.00 0.60 0.00 44 1007.6
20200409220506 50 295 7.0 18.0 0.00 0.60 0.00 42 1007.5
20200409220404 50 295 7.0 18.0 0.00 0.60 0.00 42 1007.5
20200409220304 50 296 7.0 18.0 0.00 0.60 0.00 42 1007.5
20200409220204 50 299 6.0 18.0 0.00 0.60 0.00 44 1007.7
20200409220104 50 303 7.0 16.0 0.00 0.60 0.00 42 1007.6
20200409220004 50 302 7.0 19.0 0.00 0.60 0.00 42 1007.6
20200409215904 50 303 7.0 19.0 0.00 0.60 0.00 41 1007.7
20200409215804 50 302 7.0 19.0 0.00 0.60 0.00 42 1007.7
20200409215704 50 303 7.0 19.0 0.00 0.60 0.00 41 1007.6
20200409215604 50 302 7.0 19.0 0.00 0.60 0.00 43 1007.6
20200409215503 49 299 7.0 20.0 0.00 0.60 0.00 42 1007.6
20200409215404 49 299 7.0 20.0 0.00 0.60 0.00 41 1007.6
20200409215304 49 298 7.0 20.0 0.00 0.60 0.00 41 1007.6
20200409215204 50 296 7.0 20.0 0.00 0.60 0.00 40 1007.6
20200409215104 50 294 7.0 20.0 0.00 0.60 0.00 40 1007.7
20200409215004 50 294 7.0 20.0 0.00 0.60 0.00 40 1007.6
20200409214904 50 290 7.0 20.0 0.00 0.60 0.00 40 1007.5
20200409214804 50 291 7.0 20.0 0.00 0.60 0.00 41 1007.6
20200409214704 50 290 7.0 20.0 0.00 0.60 0.00 41 1007.6
20200409214604 51 290 7.0 20.0 0.00 0.60 0.00 40 1007.6
20200409214504 51 292 8.0 18.0 0.00 0.60 0.00 40 1007.5
20200409214405 51 294 8.0 18.0 0.00 0.60 0.00 40 1007.6
20200409214304 51 296 8.0 20.0 0.00 0.60 0.00 40 1007.7
20200409214204 51 297 8.0 20.0 0.00 0.60 0.00 41 1007.5
20200409214105 51 299 8.0 20.0 0.00 0.60 0.00 40 1007.6
20200409214004 50 299 8.0 20.0 0.00 0.60 0.00 39 1007.7
20200409213904 50 301 8.0 20.0 0.00 0.60 0.00 39 1007.7
20200409213803 50 300 8.0 20.0 0.00 0.60 0.00 42 1007.6
20200409213704 50 298 8.0 20.0 0.00 0.60 0.00 41 1007.6
20200409213604 50 301 8.0 20.0 0.00 0.60 0.00 40 1007.5
20200409213504 50 302 7.0 20.0 0.00 0.60 0.00 41 1007.5
20200409213404 50 299 7.0 20.0 0.00 0.60 0.00 41 1007.5
20200409213304 50 300 6.0 18.0 0.00 0.60 0.00 40 1007.5
20200409213204 50 301 6.0 18.0 0.00 0.60 0.00 42 1007.5
20200409213104 51 301 7.0 18.0 0.00 0.60 0.00 41 1007.4
20200409213004 51 302 7.0 18.0 0.00 0.60 0.00 40 1007.4
20200409212904 51 302 7.0 18.0 0.00 0.60 0.00 41 1007.5
20200409212804 51 303 7.0 19.0 0.00 0.60 0.00 41 1007.5
20200409212704 51 303 7.0 19.0 0.00 0.60 0.00 41 1007.4
20200409212604 51 302 7.0 19.0 0.00 0.60 0.00 41 1007.4
20200409212504 51 305 8.0 19.0 0.00 0.60 0.00 41 1007.4
20200409212404 51 306 8.0 20.0 0.00 0.60 0.00 40 1007.4
20200409212304 51 305 8.0 20.0 0.00 0.60 0.00 42 1007.4
20200409212204 51 306 8.0 20.0 0.00 0.60 0.00 42 1007.4
20200409212104 50 304 8.0 20.0 0.00 0.60 0.00 42 1007.4
20200409212004 50 304 8.0 20.0 0.00 0.60 0.00 40 1007.4
20200409211904 50 302 8.0 20.0 0.00 0.60 0.00 42 1007.3
20200409211804 50 300 8.0 20.0 0.00 0.60 0.00 41 1007.4
20200409211704 50 299 9.0 20.0 0.00 0.60 0.00 40 1007.4
20200409211603 50 300 8.0 20.0 0.00 0.60 0.00 39 1007.5
20200409211504 50 297 8.0 20.0 0.00 0.60 0.00 39 1007.4
20200409211404 50 296 7.0 19.0 0.00 0.60 0.00 40 1007.4
20200409211304 51 294 8.0 19.0 0.00 0.60 0.00 42 1007.5
20200409211204 51 292 8.0 21.0 0.00 0.60 0.00 39 1007.4
20200409211104 51 292 8.0 21.0 0.00 0.60 0.00 40 1007.4
20200409211004 51 294 7.0 21.0 0.00 0.60 0.00 42 1007.4
20200409210904 51 295 7.0 21.0 0.00 0.60 0.00 41 1007.4
20200409210803 51 298 7.0 21.0 0.00 0.60 0.00 39 1007.4
20200409210704 51 301 7.0 22.0 0.00 0.60 0.00 40 1007.5
20200409210604 51 300 8.0 22.0 0.00 0.60 0.00 45 1007.4
20200409210504 51 301 8.0 22.0 0.00 0.60 0.00 42 1007.4
20200409210404 51 303 9.0 22.0 0.00 0.60 0.00 40 1007.3
20200409210304 51 305 8.0 22.0 0.00 0.60 0.00 40 1007.3
20200409210204 51 305 8.0 22.0 0.00 0.60 0.00 41 1007.3
20200409210105 51 307 8.0 22.0 0.00 0.60 0.00 41 1007.3
20200409210004 51 306 9.0 22.0 0.00 0.60 0.00 41 1007.3
20200409205903 51 306 9.0 22.0 0.00 0.60 0.00 39 1007.2
20200409205804 51 308 9.0 22.0 0.00 0.60 0.00 39 1007.3
20200409205704 51 306 9.0 20.0 0.00 0.60 0.00 38 1007.2
20200409205604 51 307 9.0 19.0 0.00 0.60 0.00 37 1007.2
20200409205504 51 306 8.0 19.0 0.00 0.60 0.00 39 1007.2
20200409205404 51 307 8.0 19.0 0.00 0.60 0.00 43 1007.2
20200409205304 51 308 9.0 19.0 0.00 0.60 0.00 39 1007.2
20200409205204 51 310 9.0 21.0 0.00 0.60 0.00 37 1007.1
20200409205105 51 309 9.0 21.0 0.00 0.60 0.00 39 1007.1
20200409205004 51 308 8.0 21.0 0.00 0.60 0.00 39 1007.1
20200409204904 51 309 7.0 21.0 0.00 0.60 0.00 39 1007.0
20200409204804 51 307 7.0 21.0 0.00 0.60 0.00 37 1007.1
20200409204704 51 306 6.0 21.0 0.00 0.60 0.00 37 1007.0
20200409204604 52 304 6.0 21.0 0.00 0.60 0.00 37 1007.1
20200409204504 52 301 6.0 21.0 0.00 0.60 0.00 39 1007.0
20200409204403 52 296 5.0 21.0 0.00 0.60 0.00 36 1007.0
20200409204304 52 291 5.0 21.0 0.00 0.60 0.00 38 1006.9
20200409204204 52 282 4.0 14.0 0.00 0.60 0.00 38 1006.9
20200409204103 52 277 4.0 14.0 0.00 0.60 0.00 39 1006.9
20200409204003 52 276 5.0 13.0 0.00 0.60 0.00 37 1006.9
20200409203904 52 282 5.0 16.0 0.00 0.60 0.00 38 1006.9
20200409203804 52 285 6.0 16.0 0.00 0.60 0.00 39 1007.0
20200409203704 53 289 6.0 16.0 0.00 0.60 0.00 37 1006.9
20200409203603 53 291 6.0 16.0 0.00 0.60 0.00 39 1006.9
20200409203504 53 292 6.0 17.0 0.00 0.60 0.00 38 1007.1
20200409203404 53 295 6.0 18.0 0.00 0.60 0.00 38 1007.1
20200409203304 54 295 7.0 18.0 0.00 0.60 0.00 37 1007.0
20200409203204 54 292 7.0 18.0 0.00 0.60 0.00 37 1006.9
20200409203104 54 294 7.0 18.0 0.00 0.60 0.00 36 1007.0
20200409203004 54 293 6.0 18.0 0.00 0.60 0.00 38 1007.2
20200409202909 54 288 7.0 18.0 0.00 0.60 0.00 38 1007.0
20200409202826 54 288 7.0 18.0 0.00 0.60 0.00 36 1006.9
20200409202819 54 286 7.0 18.0 0.00 0.60 0.00 38 1007.0
20200409202656 53 287 7.0 18.0 0.00 0.60 0.00 37 1007.0
20200409202504 53 291 7.0 19.0 0.00 0.60 0.00 40 1006.9
20200409202404 53 291 7.0 19.0 0.00 0.60 0.00 40 1007.0
20200409202305 52 292 7.0 19.0 0.00 0.60 0.00 37 1007.0
20200409202204 52 291 7.0 19.0 0.00 0.60 0.00 37 1007.0
20200409202104 53 293 7.0 19.0 0.00 0.60 0.00 35 1007.1
20200409202004 53 292 8.0 19.0 0.00 0.60 0.00 36 1007.0
20200409201903 54 291 8.0 19.0 0.00 0.60 0.00 35 1007.2
20200409201804 54 289 8.0 19.0 0.00 0.60 0.00 34 1007.1
20200409201704 54 286 8.0 19.0 0.00 0.60 0.00 36 1007.0
20200409201604 54 283 7.0 19.0 0.00 0.60 0.00 35 1006.8
20200409201504 54 276 7.0 19.0 0.00 0.60 0.00 36 1006.8
20200409201404 54 275 7.0 20.0 0.00 0.60 0.00 36 1006.8
20200409201304 54 272 7.0 20.0 0.00 0.60 0.00 34 1006.8
20200409201204 55 270 7.0 20.0 0.00 0.60 0.00 34 1006.8
20200409201103 55 266 7.0 20.0 0.00 0.60 0.00 35 1006.7
20200409201005 55 263 7.0 20.0 0.00 0.60 0.00 35 1006.9
20200409200904 56 268 7.0 20.0 0.00 0.60 0.00 36 1006.8
20200409200806 56 270 7.0 20.0 0.00 0.60 0.00 37 1006.8
20200409200703 56 273 7.0 20.0 0.00 0.60 0.00 37 1006.7
20200409200605 55 279 7.0 20.0 0.00 0.60 0.00 39 1006.8
20200409200504 55 287 8.0 20.0 0.00 0.60 0.00 38 1006.8
20200409200404 55 290 7.0 21.0 0.00 0.60 0.00 35 1006.8
20200409200303 54 290 8.0 21.0 0.00 0.60 0.00 39 1006.8
20200409200204 54 290 8.0 21.0 0.00 0.60 0.00 36 1006.8
20200409200106 54 289 7.0 21.0 0.00 0.60 0.00 35 1006.8
20200409200004 54 291 7.0 21.0 0.00 0.60 0.00 36 1006.9
20200409195903 54 285 7.0 21.0 0.00 0.60 0.00 34 1007.0
20200409195804 55 281 8.0 21.0 0.00 0.60 0.00 35 1006.9
20200409195704 55 275 8.0 21.0 0.00 0.60 0.00 33 1007.0
20200409195604 56 274 7.0 21.0 0.00 0.60 0.00 35 1007.0
20200409195504 56 272 6.0 21.0 0.00 0.60 0.00 35 1006.9
20200409195404 56 268 6.0 14.0 0.00 0.60 0.00 35 1006.9
20200409195304 56 270 6.0 14.0 0.00 0.60 0.00 37 1006.8
20200409195204 56 272 6.0 14.0 0.00 0.60 0.00 35 1006.8
20200409195103 56 276 6.0 14.0 0.00 0.60 0.00 38 1006.8
20200409195004 56 281 6.0 14.0 0.00 0.60 0.00 38 1006.9
20200409194904 56 286 6.0 14.0 0.00 0.60 0.00 38 1006.9
20200409194804 56 285 6.0 14.0 0.00 0.60 0.00 36 1006.7
20200409194704 56 286 6.0 22.0 0.00 0.60 0.00 39 1006.7
20200409194604 56 284 6.0 22.0 0.00 0.60 0.00 39 1006.7
20200409194504 56 282 7.0 22.0 0.00 0.60 0.00 38 1006.8
20200409194404 56 286 7.0 22.0 0.00 0.60 0.00 36 1007.0
20200409194303 56 287 7.0 22.0 0.00 0.60 0.00 36 1006.9
20200409194204 56 288 7.0 22.0 0.00 0.60 0.00 36 1007.0
20200409194104 56 290 7.0 22.0 0.00 0.60 0.00 42 1007.1
20200409194004 55 289 7.0 22.0 0.00 0.60 0.00 36 1007.0
20200409193905 55 290 8.0 22.0 0.00 0.60 0.00 34 1007.0
20200409193804 55 293 7.0 22.0 0.00 0.60 0.00 36 1007.0
20200409193704 55 297 7.0 19.0 0.00 0.60 0.00 33 1007.0
20200409193604 55 299 6.0 18.0 0.00 0.60 0.00 35 1007.1
20200409193503 55 302 6.0 18.0 0.00 0.60 0.00 33 1007.0
20200409193404 56 302 7.0 21.0 0.00 0.60 0.00 35 1007.1
20200409193304 55 299 7.0 21.0 0.00 0.60 0.00 34 1007.0
20200409193204 55 299 7.0 21.0 0.00 0.60 0.00 38 1007.1
20200409193104 55 300 7.0 21.0 0.00 0.60 0.00 37 1007.1
20200409193004 55 303 7.0 21.0 0.00 0.60 0.00 37 1007.1
20200409192904 55 303 7.0 21.0 0.00 0.60 0.00 34 1007.1
20200409192804 55 304 7.0 21.0 0.00 0.60 0.00 34 1007.2
20200409192703 55 301 7.0 21.0 0.00 0.60 0.00 36 1007.1
20200409192604 55 292 8.0 22.0 0.00 0.60 0.00 34 1007.1
20200409192504 55 286 8.0 22.0 0.00 0.60 0.00 34 1007.0
20200409192404 55 279 8.0 22.0 0.00 0.60 0.00 35 1007.2
20200409192304 55 273 8.0 22.0 0.00 0.60 0.00 33 1007.2
20200409192204 55 271 8.0 22.0 0.00 0.60 0.00 36 1007.2
20200409192104 55 268 8.0 22.0 0.00 0.60 0.00 35 1007.4
20200409192004 55 261 8.0 22.0 0.00 0.60 0.00 34 1007.4
20200409191904 55 255 8.0 22.0 0.00 0.60 0.00 35 1007.4
20200409191803 55 255 9.0 22.0 0.00 0.60 0.00 36 1007.4
20200409191704 55 254 8.0 22.0 0.00 0.60 0.00 33 1007.3
20200409191604 55 258 8.0 19.0 0.00 0.60 0.00 36 1007.4
20200409191504 55 261 7.0 19.0 0.00 0.60 0.00 37 1007.4
20200409191404 55 264 7.0 19.0 0.00 0.60 0.00 38 1007.4
20200409191304 55 268 7.0 19.0 0.00 0.60 0.00 35 1007.5
20200409191204 55 268 8.0 19.0 0.00 0.60 0.00 34 1007.4
20200409191104 55 270 7.0 19.0 0.00 0.60 0.00 34 1007.4
20200409191004 55 276 7.0 16.0 0.00 0.60 0.00 36 1007.4
20200409190904 55 279 7.0 16.0 0.00 0.60 0.00 35 1007.6
20200409190804 55 281 7.0 16.0 0.00 0.60 0.00 37 1007.6
20200409190704 55 289 6.0 16.0 0.00 0.60 0.00 37 1007.6
20200409190604 55 288 6.0 16.0 0.00 0.60 0.00 36 1007.5
20200409190504 55 288 7.0 16.0 0.00 0.60 0.00 37 1007.4
20200409190404 55 287 6.0 16.0 0.00 0.60 0.00 38 1007.4
20200409190304 55 289 6.0 16.0 0.00 0.60 0.00 38 1007.4
20200409190204 55 293 6.0 15.0 0.00 0.60 0.00 33 1007.3
20200409190104 55 289 6.0 13.0 0.00 0.60 0.00 34 1007.3
20200409190004 55 289 5.0 13.0 0.00 0.60 0.00 38 1007.5
20200409185903 55 288 5.0 13.0 0.00 0.60 0.00 37 1007.5
20200409185804 55 284 5.0 13.0 0.00 0.60 0.00 39 1007.6
20200409185704 55 277 5.0 12.0 0.00 0.60 0.00 37 1007.5
20200409185604 55 274 5.0 17.0 0.00 0.60 0.00 37 1007.6
20200409185503 55 271 6.0 17.0 0.00 0.60 0.00 35 1007.5
20200409185405 55 268 6.0 20.0 0.00 0.60 0.00 35 1007.6
20200409185304 55 267 6.0 20.0 0.00 0.60 0.00 39 1007.6
20200409185204 56 261 6.0 20.0 0.00 0.60 0.00 38 1007.6
20200409185104 56 262 6.0 20.0 0.00 0.60 0.00 39 1007.7
20200409185004 56 260 7.0 20.0 0.00 0.60 0.00 39 1007.6
20200409184904 55 260 6.0 20.0 0.00 0.60 0.00 40 1007.7
20200409184804 55 263 7.0 20.0 0.00 0.60 0.00 38 1007.8
20200409184704 55 272 7.0 20.0 0.00 0.60 0.00 37 1007.7
20200409184642 55 276 7.0 20.0 0.00 0.60 0.00 35 1007.6
20200409184545 55 273 7.0 20.0 0.00 0.60 0.00 34 1007.7
20200409184404 55 280 7.0 17.0 0.00 0.60 0.00 36 1007.7
20200409184304 55 279 7.0 17.0 0.00 0.60 0.00 38 1007.8
20200409184204 55 285 7.0 17.0 0.00 0.60 0.00 37 1007.8
20200409184104 55 288 7.0 17.0 0.00 0.60 0.00 36 1007.8
20200409184004 55 297 7.0 17.0 0.00 0.60 0.00 36 1007.9
20200409183904 55 301 7.0 17.0 0.00 0.60 0.00 32 1007.9
20200409183804 55 304 7.0 17.0 0.00 0.60 0.00 34 1007.9
20200409183704 55 298 7.0 17.0 0.00 0.60 0.00 38 1007.9
20200409183604 54 288 8.0 17.0 0.00 0.60 0.00 38 1007.9
20200409183504 54 285 8.0 23.0 0.00 0.60 0.00 38 1007.8
20200409183403 54 277 9.0 23.0 0.00 0.60 0.00 40 1007.9
20200409183304 54 273 10.0 23.0 0.00 0.60 0.00 37 1007.8
20200409183204 54 270 9.0 23.0 0.00 0.60 0.00 35 1007.8
20200409183104 54 266 9.0 23.0 0.00 0.60 0.00 38 1007.9
20200409183004 54 260 9.0 23.0 0.00 0.60 0.00 36 1007.8
20200409182904 54 260 9.0 23.0 0.00 0.60 0.00 43 1007.9
20200409182804 54 260 9.0 23.0 0.00 0.60 0.00 34 1007.6
20200409182704 54 262 9.0 23.0 0.00 0.60 0.00 35 1007.7
20200409182604 54 267 8.0 23.0 0.00 0.60 0.00 34 1007.7
20200409182504 54 269 8.0 22.0 0.00 0.60 0.00 33 1007.7
20200409182404 54 268 7.0 22.0 0.00 0.60 0.00 30 1007.8
20200409182304 55 269 7.0 20.0 0.00 0.60 0.00 33 1008.0
20200409182204 54 266 8.0 21.0 0.00 0.60 0.00 38 1008.0
20200409182104 54 265 8.0 21.0 0.00 0.60 0.00 38 1007.9
20200409182005 54 265 8.0 21.0 0.00 0.60 0.00 36 1007.8
20200409181904 54 262 8.0 21.0 0.00 0.60 0.00 39 1008.1
20200409181808 54 262 8.0 21.0 0.00 0.60 0.00 38 1007.9
20200409181704 54 262 8.0 21.0 0.00 0.60 0.00 36 1007.9
20200409181604 54 261 8.0 21.0 0.00 0.60 0.00 39 1008.1
20200409181504 54 265 8.0 21.0 0.00 0.60 0.00 37 1008.0
20200409181405 54 271 8.0 21.0 0.00 0.60 0.00 36 1008.0
20200409181304 54 278 8.0 21.0 0.00 0.60 0.00 36 1008.0
20200409181204 54 285 8.0 20.0 0.00 0.60 0.00 37 1008.1
20200409181104 54 291 8.0 20.0 0.00 0.60 0.00 36 1008.0
20200409181004 54 294 8.0 21.0 0.00 0.60 0.00 40 1008.2
20200409180904 54 300 8.0 21.0 0.00 0.60 0.00 40 1008.0
20200409180804 53 300 9.0 21.0 0.00 0.60 0.00 35 1008.0
20200409180704 53 300 8.0 21.0 0.00 0.60 0.00 38 1008.1
20200409180604 53 300 8.0 21.0 0.00 0.60 0.00 37 1008.0
20200409180504 54 298 8.0 21.0 0.00 0.60 0.00 36 1007.9
20200409180404 54 294 8.0 21.0 0.00 0.60 0.00 35 1008.0
20200409180304 54 288 8.0 21.0 0.00 0.60 0.00 36 1008.0
20200409180204 54 282 8.0 21.0 0.00 0.60 0.00 36 1008.0
20200409180104 54 277 7.0 21.0 0.00 0.60 0.00 33 1008.0
20200409180004 54 275 7.0 17.0 0.00 0.60 0.00 35 1008.1
20200409175904 54 270 7.0 16.0 0.00 0.60 0.00 42 1008.1
20200409175804 54 270 7.0 16.0 0.00 0.60 0.00 35 1007.9
20200409175704 54 271 7.0 17.0 0.00 0.60 0.00 33 1008.0
20200409175604 55 273 7.0 17.0 0.00 0.60 0.00 37 1008.0
20200409175504 54 274 7.0 17.0 0.00 0.60 0.00 40 1008.2
20200409175403 54 279 7.0 17.0 0.00 0.60 0.00 42 1008.2
20200409175304 54 284 7.0 17.0 0.00 0.60 0.00 36 1008.2
20200409175204 54 292 7.0 17.0 0.00 0.60 0.00 38 1008.1
20200409175104 53 296 7.0 17.0 0.00 0.60 0.00 41 1008.1
20200409175005 53 297 7.0 19.0 0.00 0.60 0.00 40 1008.1
20200409174904 53 295 7.0 19.0 0.00 0.60 0.00 36 1008.2
20200409174804 53 290 7.0 19.0 0.00 0.60 0.00 35 1008.1
20200409174704 53 287 7.0 19.0 0.00 0.60 0.00 37 1008.3
20200409174604 53 294 7.0 19.0 0.00 0.60 0.00 36 1008.2
20200409174505 53 292 7.0 19.0 0.00 0.60 0.00 35 1008.2
20200409174404 54 289 6.0 19.0 0.00 0.60 0.00 36 1008.3
20200409174304 54 283 6.0 19.0 0.00 0.60 0.00 35 1008.3
20200409174204 54 277 7.0 19.0 0.00 0.60 0.00 38 1008.2
20200409174105 54 270 7.0 19.0 0.00 0.60 0.00 40 1008.0
20200409174004 54 275 7.0 18.0 0.00 0.60 0.00 41 1008.2
20200409173904 53 277 6.0 18.0 0.00 0.60 0.00 40 1008.4
20200409173803 53 281 6.0 18.0 0.00 0.60 0.00 35 1008.4
20200409173704 53 276 6.0 18.0 0.00 0.60 0.00 38 1008.4
20200409173604 53 271 6.0 14.0 0.00 0.60 0.00 38 1008.4
20200409173504 54 270 6.0 14.0 0.00 0.60 0.00 41 1008.5
20200409173404 54 267 6.0 14.0 0.00 0.60 0.00 41 1008.4
20200409173304 53 269 6.0 15.0 0.00 0.60 0.00 37 1008.3
20200409173204 54 268 6.0 15.0 0.00 0.60 0.00 40 1008.4
20200409173104 54 270 5.0 15.0 0.00 0.60 0.00 38 1008.3
20200409173005 54 267 5.0 15.0 0.00 0.60 0.00 39 1008.4
20200409172904 54 266 6.0 15.0 0.00 0.60 0.00 39 1008.4
20200409172804 54 260 6.0 21.0 0.00 0.60 0.00 46 1008.4
20200409172703 53 259 7.0 21.0 0.00 0.60 0.00 41 1008.4
20200409172604 53 256 7.0 22.0 0.00 0.60 0.00 39 1008.4
20200409172504 53 258 7.0 22.0 0.00 0.60 0.00 43 1008.4
20200409172404 53 259 7.0 22.0 0.00 0.60 0.00 43 1008.4
20200409172304 53 262 8.0 22.0 0.00 0.60 0.00 40 1008.4
20200409172204 53 266 7.0 22.0 0.00 0.60 0.00 41 1008.4
20200409172104 52 268 7.0 22.0 0.00 0.60 0.00 40 1008.5
20200409172004 52 267 7.0 22.0 0.00 0.60 0.00 40 1008.5
20200409171903 53 268 6.0 22.0 0.00 0.60 0.00 40 1008.5
20200409171805 53 273 6.0 22.0 0.00 0.60 0.00 40 1008.6
20200409171705 53 278 6.0 22.0 0.00 0.60 0.00 42 1008.6
20200409171604 53 281 6.0 21.0 0.00 0.60 0.00 42 1008.7
20200409171504 53 279 6.0 21.0 0.00 0.60 0.00 46 1008.8
20200409171405 53 281 6.0 21.0 0.00 0.60 0.00 45 1008.8
20200409171304 53 276 5.0 21.0 0.00 0.60 0.00 43 1008.8
20200409171204 53 276 5.0 21.0 0.00 0.60 0.00 43 1008.7
20200409171104 53 275 6.0 21.0 0.00 0.60 0.00 40 1008.8
20200409171004 53 273 5.0 21.0 0.00 0.60 0.00 41 1008.8
20200409170904 54 270 5.0 21.0 0.00 0.60 0.00 45 1008.8
20200409170804 54 266 5.0 21.0 0.00 0.60 0.00 49 1008.8
20200409170703 53 264 5.0 21.0 0.00 0.60 0.00 45 1008.8
20200409170604 53 267 4.0 21.0 0.00 0.60 0.00 44 1008.8
20200409170504 53 273 4.0 16.0 0.00 0.60 0.00 44 1008.8
20200409170404 53 273 4.0 16.0 0.00 0.60 0.00 45 1008.8
20200409170303 53 279 5.0 16.0 0.00 0.60 0.00 43 1008.7
20200409170204 53 282 5.0 16.0 0.00 0.60 0.00 46 1008.7
20200409170104 53 282 5.0 16.0 0.00 0.60 0.00 41 1008.8
20200409170004 53 289 5.0 16.0 0.00 0.60 0.00 44 1008.7
20200409165904 52 294 5.0 18.0 0.00 0.60 0.00 43 1008.8
20200409165804 52 299 6.0 18.0 0.00 0.60 0.00 43 1008.8
20200409165704 52 301 6.0 18.0 0.00 0.60 0.00 42 1008.7
20200409165604 52 303 6.0 18.0 0.00 0.60 0.00 47 1008.7
20200409165504 52 306 7.0 18.0 0.00 0.60 0.00 42 1008.8
20200409165404 52 303 7.0 18.0 0.00 0.60 0.00 47 1008.8
20200409165304 52 298 7.0 18.0 0.00 0.60 0.00 45 1008.8
20200409165204 52 293 8.0 18.0 0.00 0.60 0.00 44 1008.8
20200409165104 52 288 8.0 18.0 0.00 0.60 0.00 44 1008.8
20200409165005 52 281 8.0 20.0 0.00 0.60 0.00 45 1008.8
20200409164904 52 278 8.0 20.0 0.00 0.60 0.00 42 1008.8
20200409164804 52 273 8.0 20.0 0.00 0.60 0.00 44 1008.8
20200409164704 52 270 8.0 20.0 0.00 0.60 0.00 42 1008.8
20200409164604 52 263 8.0 20.0 0.00 0.60 0.00 48 1008.9
20200409164504 52 261 8.0 20.0 0.00 0.60 0.00 45 1008.7
20200409164403 52 263 8.0 20.0 0.00 0.60 0.00 44 1008.8
20200409164304 52 263 7.0 20.0 0.00 0.60 0.00 42 1008.8
20200409164204 52 261 6.0 20.0 0.00 0.60 0.00 44 1008.7
20200409164104 51 259 5.0 20.0 0.00 0.60 0.00 44 1008.9
20200409164003 51 261 5.0 20.0 0.00 0.60 0.00 45 1008.8
20200409163904 51 259 5.0 20.0 0.00 0.60 0.00 46 1008.7
20200409163804 52 258 5.0 19.0 0.00 0.60 0.00 45 1008.8
20200409163704 52 258 5.0 19.0 0.00 0.60 0.00 46 1008.9
20200409163604 52 262 5.0 19.0 0.00 0.60 0.00 43 1008.9
20200409163504 52 260 4.0 19.0 0.00 0.60 0.00 47 1008.9
20200409163404 52 261 4.0 17.0 0.00 0.60 0.00 47 1009.0
20200409163304 52 269 4.0 17.0 0.00 0.60 0.00 50 1008.9
20200409163204 52 272 5.0 17.0 0.00 0.60 0.00 48 1008.9
20200409163104 52 278 5.0 17.0 0.00 0.60 0.00 47 1008.9
20200409163004 52 277 5.0 17.0 0.00 0.60 0.00 45 1008.9
20200409162904 51 279 5.0 17.0 0.00 0.60 0.00 48 1008.9
20200409162804 51 281 5.0 13.0 0.00 0.60 0.00 46 1009.0
20200409162704 51 282 6.0 13.0 0.00 0.60 0.00 44 1009.0
20200409162604 51 286 6.0 14.0 0.00 0.60 0.00 46 1008.9
20200409162504 51 287 6.0 14.0 0.00 0.60 0.00 45 1009.1
20200409162404 51 290 6.0 14.0 0.00 0.60 0.00 48 1009.2
20200409162305 51 287 6.0 14.0 0.00 0.60 0.00 44 1009.2
20200409162205 51 287 6.0 14.0 0.00 0.60 0.00 47 1009.0
20200409162104 51 287 6.0 14.0 0.00 0.60 0.00 48 1009.0
20200409162004 51 289 6.0 14.0 0.00 0.60 0.00 45 1008.9
20200409161904 51 281 6.0 14.0 0.00 0.60 0.00 46 1009.0
20200409161804 51 277 6.0 15.0 0.00 0.60 0.00 45 1008.9
20200409161704 51 274 6.0 15.0 0.00 0.60 0.00 49 1009.0
20200409161604 51 270 6.0 15.0 0.00 0.60 0.00 47 1009.0
20200409161504 51 270 6.0 15.0 0.00 0.60 0.00 46 1009.1
20200409161404 51 270 6.0 15.0 0.00 0.60 0.00 48 1009.0
20200409161304 51 272 6.0 15.0 0.00 0.60 0.00 50 1009.0
20200409161204 51 274 6.0 15.0 0.00 0.60 0.00 47 1009.0
20200409161104 51 277 6.0 15.0 0.00 0.60 0.00 50 1009.0
20200409161004 51 279 6.0 15.0 0.00 0.60 0.00 47 1009.0
20200409160904 51 288 5.0 15.0 0.00 0.60 0.00 49 1009.1
20200409160804 51 297 5.0 14.0 0.00 0.60 0.00 51 1009.2
20200409160704 51 298 5.0 14.0 0.00 0.60 0.00 48 1009.2
20200409160604 51 296 5.0 15.0 0.00 0.60 0.00 46 1009.3
20200409160504 51 291 5.0 15.0 0.00 0.60 0.00 46 1009.3
20200409160404 51 286 5.0 15.0 0.00 0.60 0.00 45 1009.2
20200409160304 51 284 5.0 15.0 0.00 0.60 0.00 47 1009.2
20200409160204 51 287 5.0 15.0 0.00 0.60 0.00 47 1009.1
20200409160105 51 287 5.0 15.0 0.00 0.60 0.00 48 1009.2
20200409160004 51 281 5.0 15.0 0.00 0.60 0.00 48 1009.2
20200409155904 51 283 6.0 15.0 0.00 0.60 0.00 49 1009.2
20200409155804 51 286 6.0 15.0 0.00 0.60 0.00 51 1009.2
20200409155706 51 292 6.0 15.0 0.00 0.60 0.00 48 1009.3
20200409155605 51 300 6.0 15.0 0.00 0.60 0.00 50 1009.3
20200409155505 51 306 6.0 15.0 0.00 0.60 0.00 47 1009.3
20200409155404 50 307 6.0 15.0 0.00 0.60 0.00 47 1009.2
20200409155304 50 311 7.0 15.0 0.00 0.60 0.00 46 1009.2
20200409155204 50 310 7.0 15.0 0.00 0.60 0.00 47 1009.3
20200409155104 50 309 7.0 17.0 0.00 0.60 0.00 49 1009.4
20200409155004 50 310 7.0 17.0 0.00 0.60 0.00 48 1009.3
20200409154904 50 310 7.0 17.0 0.00 0.60 0.00 44 1009.3
20200409154804 50 310 7.0 17.0 0.00 0.60 0.00 43 1009.4
20200409154704 50 308 7.0 17.0 0.00 0.60 0.00 48 1009.4
20200409154604 50 307 7.0 17.0 0.00 0.60 0.00 43 1009.4
20200409154504 50 310 7.0 17.0 0.00 0.60 0.00 45 1009.4
20200409154404 50 315 7.0 17.0 0.00 0.60 0.00 47 1009.3
20200409154304 50 317 8.0 17.0 0.00 0.60 0.00 47 1009.3
20200409154204 50 319 8.0 17.0 0.00 0.60 0.00 46 1009.3
20200409154103 50 324 8.0 17.0 0.00 0.60 0.00 52 1009.3
20200409154004 50 326 8.0 17.0 0.00 0.60 0.00 50 1009.4
20200409153905 50 325 8.0 17.0 0.00 0.60 0.00 46 1009.3
20200409153804 50 324 8.0 17.0 0.00 0.60 0.00 45 1009.4
20200409153705 50 325 7.0 17.0 0.00 0.60 0.00 47 1009.4
20200409153624 50 325 7.0 17.0 0.00 0.60 0.00 49 1009.4
20200409153504 50 323 7.0 17.0 0.00 0.60 0.00 48 1009.3
20200409153403 50 320 7.0 17.0 0.00 0.60 0.00 47 1009.4
20200409153304 50 316 7.0 19.0 0.00 0.60 0.00 46 1009.4
20200409153204 50 312 6.0 19.0 0.00 0.60 0.00 46 1009.3
20200409153104 50 306 6.0 19.0 0.00 0.60 0.00 46 1009.5
20200409153005 50 306 6.0 19.0 0.00 0.60 0.00 45 1009.5
20200409152904 50 306 6.0 19.0 0.00 0.60 0.00 51 1009.5
20200409152804 50 309 7.0 19.0 0.00 0.60 0.00 47 1009.4
20200409152704 50 309 7.0 19.0 0.00 0.60 0.00 50 1009.5
20200409152603 50 309 7.0 19.0 0.00 0.60 0.00 47 1009.5
20200409152504 50 310 7.0 19.0 0.00 0.60 0.00 45 1009.5
20200409152404 50 310 7.0 19.0 0.00 0.60 0.00 48 1009.5
20200409152304 50 309 7.0 16.0 0.00 0.60 0.00 45 1009.5
20200409152204 50 310 6.0 16.0 0.00 0.60 0.00 46 1009.6
20200409152104 50 307 6.0 16.0 0.00 0.60 0.00 47 1009.5
20200409152004 50 308 5.0 16.0 0.00 0.60 0.00 46 1009.6
20200409151904 50 307 5.0 16.0 0.00 0.60 0.00 47 1009.6
20200409151804 50 304 6.0 16.0 0.00 0.60 0.00 48 1009.6
20200409151704 50 302 5.0 16.0 0.00 0.60 0.00 47 1009.6
20200409151604 50 301 6.0 16.0 0.00 0.60 0.00 46 1009.6
20200409151504 50 301 6.0 16.0 0.00 0.60 0.00 46 1009.7
20200409151403 50 301 6.0 16.0 0.00 0.60 0.00 45 1009.7
20200409151304 50 303 6.0 16.0 0.00 0.60 0.00 51 1009.5
20200409151204 50 302 7.0 16.0 0.00 0.60 0.00 48 1009.5
20200409151104 50 302 7.0 16.0 0.00 0.60 0.00 48 1009.5
20200409151004 50 303 7.0 16.0 0.00 0.60 0.00 49 1009.6
20200409150904 49 302 7.0 16.0 0.00 0.60 0.00 45 1009.7
20200409150804 49 300 8.0 20.0 0.00 0.60 0.00 45 1009.8
20200409150704 49 301 8.0 20.0 0.00 0.60 0.00 46 1009.8
20200409150604 49 301 8.0 20.0 0.00 0.60 0.00 45 1009.6
20200409150504 49 301 7.0 20.0 0.00 0.60 0.00 45 1009.6
20200409150404 49 302 8.0 20.0 0.00 0.60 0.00 45 1009.6
20200409150303 49 303 8.0 20.0 0.00 0.60 0.00 46 1009.6
20200409150204 49 307 8.0 20.0 0.00 0.60 0.00 44 1009.6
20200409150104 49 310 8.0 20.0 0.00 0.60 0.00 45 1009.6
20200409150004 49 310 9.0 20.0 0.00 0.60 0.00 43 1009.4
20200409145904 49 311 9.0 20.0 0.00 0.60 0.00 44 1009.4
20200409145804 49 313 8.0 20.0 0.00 0.60 0.00 43 1009.4
20200409145704 49 312 8.0 19.0 0.00 0.60 0.00 46 1009.5
20200409145604 49 312 9.0 23.0 0.00 0.60 0.00 47 1009.5
20200409145504 49 311 9.0 23.0 0.00 0.60 0.00 43 1009.5
20200409145404 49 308 8.0 23.0 0.00 0.60 0.00 42 1009.5
20200409145304 49 307 8.0 23.0 0.00 0.60 0.00 49 1009.5
20200409145204 49 303 8.0 23.0 0.00 0.60 0.00 49 1009.6
20200409145104 49 299 8.0 23.0 0.00 0.60 0.00 43 1009.7
20200409145004 49 297 8.0 23.0 0.00 0.60 0.00 43 1009.6
20200409144904 49 292 8.0 23.0 0.00 0.60 0.00 44 1009.7
20200409144803 49 291 8.0 23.0 0.00 0.60 0.00 44 1009.7
20200409144704 49 291 7.0 23.0 0.00 0.60 0.00 44 1009.7
20200409144604 49 290 7.0 19.0 0.00 0.60 0.00 44 1009.7
20200409144504 49 291 7.0 19.0 0.00 0.60 0.00 46 1009.7
20200409144403 49 295 7.0 19.0 0.00 0.60 0.00 45 1009.6
20200409144304 49 295 7.0 19.0 0.00 0.60 0.00 44 1009.6
20200409144204 49 299 7.0 19.0 0.00 0.60 0.00 45 1009.5
20200409144104 49 304 7.0 21.0 0.00 0.60 0.00 46 1009.6
20200409144004 49 306 7.0 21.0 0.00 0.60 0.00 46 1009.4
20200409143904 49 310 7.0 21.0 0.00 0.60 0.00 50 1009.6
20200409143804 49 311 8.0 21.0 0.00 0.60 0.00 49 1009.5
20200409143707 49 310 8.0 21.0 0.00 0.60 0.00 49 1009.5
20200409143642 49 309 8.0 21.0 0.00 0.60 0.00 46 1009.5
20200409143505 49 309 8.0 21.0 0.00 0.60 0.00 47 1009.5
20200409143404 49 308 8.0 21.0 0.00 0.60 0.00 46 1009.5
20200409143304 49 307 9.0 21.0 0.00 0.60 0.00 45 1009.4
20200409143204 49 306 9.0 21.0 0.00 0.60 0.00 46 1009.4
20200409143104 49 304 9.0 20.0 0.00 0.60 0.00 45 1009.4
20200409143004 49 305 9.0 20.0 0.00 0.60 0.00 44 1009.5
20200409142704 49 302 9.0 20.0 0.00 0.60 0.00 45 1009.3
20200409142604 49 303 9.0 19.0 0.00 0.60 0.00 44 1009.2
20200409142504 49 300 10.0 19.0 0.00 0.60 0.00 46 1009.2
20200409142403 49 301 10.0 24.0 0.00 0.60 0.00 44 1009.1
20200409142304 49 302 9.0 24.0 0.00 0.60 0.00 44 1009.1
20200409142204 49 301 10.0 24.0 0.00 0.60 0.00 44 1009.2
20200409142104 49 301 9.0 24.0 0.00 0.60 0.00 41 1009.1
20200409142003 49 301 9.0 24.0 0.00 0.60 0.00 44 1009.1
20200409141904 49 300 10.0 24.0 0.00 0.60 0.00 42 1008.9
20200409141804 49 301 9.0 24.0 0.00 0.60 0.00 47 1009.0
20200409141704 49 302 9.0 24.0 0.00 0.60 0.00 42 1009.1
20200409141603 49 303 9.0 24.0 0.00 0.60 0.00 42 1009.1
20200409141505 49 303 9.0 24.0 0.00 0.60 0.00 45 1009.0
20200409141404 48 302 8.0 18.0 0.00 0.60 0.00 43 1009.0
20200409141304 48 301 9.0 18.0 0.00 0.60 0.00 42 1008.9
20200409141203 48 302 9.0 18.0 0.00 0.60 0.00 42 1008.9
20200409141104 48 303 9.0 18.0 0.00 0.60 0.00 45 1009.0
20200409141004 48 302 8.0 18.0 0.00 0.60 0.00 40 1008.9
20200409140904 48 303 8.0 18.0 0.00 0.60 0.00 43 1008.9
20200409140804 48 304 8.0 18.0 0.00 0.60 0.00 45 1008.9
20200409140704 48 305 8.0 18.0 0.00 0.60 0.00 43 1008.9
20200409140604 48 305 8.0 18.0 0.00 0.60 0.00 44 1009.0
20200409140504 48 306 7.0 18.0 0.00 0.60 0.00 44 1008.9
20200409140404 48 307 7.0 18.0 0.00 0.60 0.00 43 1008.9
20200409140304 48 309 7.0 18.0 0.00 0.60 0.00 44 1008.8
20200409140204 48 309 7.0 18.0 0.00 0.60 0.00 44 1008.9
20200409140104 48 306 7.0 18.0 0.00 0.60 0.00 46 1009.0
20200409140004 48 303 8.0 28.0 0.00 0.60 0.00 46 1009.0
20200409135904 48 304 8.0 28.0 0.00 0.60 0.00 46 1008.9
20200409135804 48 303 8.0 28.0 0.00 0.60 0.00 47 1008.9
20200409135704 48 299 8.0 28.0 0.00 0.60 0.00 47 1008.9
20200409135604 48 294 8.0 28.0 0.00 0.60 0.00 45 1008.9
20200409135504 48 292 8.0 28.0 0.00 0.60 0.00 46 1008.9
20200409135404 48 293 9.0 28.0 0.00 0.60 0.00 44 1008.9
20200409135304 48 294 9.0 28.0 0.00 0.60 0.00 43 1009.0
20200409135204 48 295 9.0 28.0 0.00 0.60 0.00 45 1008.8
20200409135103 48 297 9.0 28.0 0.00 0.60 0.00 45 1008.9
20200409135004 48 300 9.0 19.0 0.00 0.60 0.00 47 1008.9
20200409134904 48 298 9.0 19.0 0.00 0.60 0.00 45 1008.8
20200409134804 48 300 9.0 26.0 0.00 0.60 0.00 47 1008.9
20200409134704 48 303 8.0 26.0 0.00 0.60 0.00 47 1008.8
20200409134604 48 306 8.0 26.0 0.00 0.60 0.00 49 1008.9
20200409134504 48 310 7.0 26.0 0.00 0.60 0.00 47 1008.8
20200409134404 48 311 7.0 26.0 0.00 0.60 0.00 47 1008.9
20200409134304 48 310 7.0 26.0 0.00 0.60 0.00 45 1008.8
20200409134204 48 310 7.0 26.0 0.00 0.60 0.00 45 1008.8
20200409134104 48 307 6.0 26.0 0.00 0.60 0.00 47 1008.7
20200409134004 48 305 6.0 26.0 0.00 0.60 0.00 47 1008.8
20200409133904 48 308 6.0 26.0 0.00 0.60 0.00 50 1008.9
20200409133804 48 304 6.0 20.0 0.00 0.60 0.00 52 1008.7
20200409133704 48 305 6.0 20.0 0.00 0.60 0.00 50 1008.7
20200409133604 48 305 6.0 20.0 0.00 0.60 0.00 50 1008.8
20200409133504 48 305 6.0 20.0 0.00 0.60 0.00 51 1008.7
20200409133404 48 302 6.0 20.0 0.00 0.60 0.00 49 1008.7
20200409133304 48 303 6.0 20.0 0.00 0.60 0.00 49 1008.7
20200409133204 48 301 6.0 20.0 0.00 0.60 0.00 50 1008.7
20200409133104 48 303 6.0 20.0 0.00 0.60 0.00 52 1008.7
20200409133004 48 305 6.0 13.0 0.00 0.60 0.00 51 1008.6
20200409132904 47 304 6.0 13.0 0.00 0.60 0.00 51 1008.6
20200409132804 47 304 6.0 13.0 0.00 0.60 0.00 49 1008.6
20200409132704 47 303 7.0 13.0 0.00 0.60 0.00 53 1008.6
20200409132603 47 303 7.0 18.0 0.00 0.60 0.00 53 1008.4
20200409132504 47 300 7.0 23.0 0.00 0.60 0.00 51 1008.4
20200409132404 47 301 7.0 23.0 0.00 0.60 0.00 51 1008.5
20200409132304 47 298 7.0 23.0 0.00 0.60 0.00 51 1008.5
20200409132205 47 296 8.0 23.0 0.00 0.60 0.00 51 1008.4
20200409132105 47 297 7.0 23.0 0.00 0.60 0.00 53 1008.6
20200409132004 47 296 7.0 23.0 0.00 0.60 0.00 53 1008.5
20200409131904 47 295 8.0 23.0 0.00 0.60 0.00 51 1008.5
20200409131805 47 295 8.0 23.0 0.00 0.60 0.00 51 1008.5
20200409131704 47 296 7.0 23.0 0.00 0.60 0.00 53 1008.5
20200409131604 47 292 7.0 23.0 0.00 0.60 0.00 53 1008.4
20200409131504 47 295 7.0 21.0 0.00 0.60 0.00 54 1008.5
20200409131405 47 297 7.0 15.0 0.00 0.60 0.00 56 1008.5
20200409131304 47 298 7.0 16.0 0.00 0.60 0.00 56 1008.5
20200409131204 47 298 7.0 16.0 0.00 0.60 0.00 55 1008.6
20200409131104 47 297 7.0 16.0 0.00 0.60 0.00 59 1008.5
20200409131003 47 297 7.0 16.0 0.00 0.60 0.00 55 1008.5
20200409130904 47 297 7.0 16.0 0.00 0.60 0.00 58 1008.5
20200409130804 47 296 6.0 16.0 0.00 0.60 0.00 57 1008.5
20200409130704 47 294 6.0 16.0 0.00 0.60 0.00 59 1008.6
20200409130604 46 297 6.0 16.0 0.00 0.60 0.00 57 1008.5
20200409130504 46 297 6.0 16.0 0.00 0.60 0.00 57 1008.4
20200409130404 46 294 6.0 16.0 0.00 0.60 0.00 59 1008.4
20200409130304 46 295 6.0 15.0 0.00 0.60 0.00 57 1008.5
20200409130206 46 295 6.0 15.0 0.00 0.60 0.00 57 1008.4
20200409130104 46 293 6.0 15.0 0.00 0.60 0.00 56 1008.3
20200409130004 46 292 6.0 15.0 0.00 0.60 0.00 58 1008.6
20200409125904 46 295 6.0 15.0 0.00 0.60 0.00 57 1008.5
20200409125803 46 295 6.0 15.0 0.00 0.60 0.00 57 1008.5
20200409125704 46 294 6.0 15.0 0.00 0.60 0.00 57 1008.4
20200409125604 46 292 6.0 15.0 0.00 0.60 0.00 59 1008.4
20200409125504 46 294 6.0 15.0 0.00 0.60 0.00 58 1008.4
20200409125404 46 295 6.0 15.0 0.00 0.60 0.00 58 1008.5
20200409125304 46 295 6.0 13.0 0.00 0.60 0.00 58 1008.4
20200409125231 46 294 7.0 17.0 0.00 0.60 0.00 60 1008.5
20200409125104 46 300 7.0 17.0 0.00 0.60 0.00 58 1008.5
20200409125004 46 302 7.0 17.0 0.00 0.60 0.00 57 1008.4
20200409124905 46 301 8.0 17.0 0.00 0.60 0.00 58 1008.5
20200409124804 46 301 8.0 18.0 0.00 0.60 0.00 58 1008.5
20200409124704 46 303 8.0 18.0 0.00 0.60 0.00 58 1008.5
20200409124604 46 303 8.0 18.0 0.00 0.60 0.00 58 1008.5
20200409124503 46 302 9.0 18.0 0.00 0.60 0.00 58 1008.4
20200409124404 46 303 9.0 21.0 0.00 0.60 0.00 58 1008.4
20200409124307 46 304 8.0 21.0 0.00 0.60 0.00 57 1008.4
20200409124204 46 306 8.0 21.0 0.00 0.60 0.00 57 1008.5
20200409124105 46 304 7.0 21.0 0.00 0.60 0.00 57 1008.5
20200409124006 46 303 7.0 21.0 0.00 0.60 0.00 58 1008.5
20200409123904 46 302 7.0 21.0 0.00 0.60 0.00 59 1008.6
20200409123805 46 303 6.0 21.0 0.00 0.60 0.00 59 1008.5
20200409123704 46 305 7.0 21.0 0.00 0.60 0.00 59 1008.5
20200409123604 46 306 7.0 21.0 0.00 0.60 0.00 60 1008.4
20200409123504 46 306 6.0 21.0 0.00 0.60 0.00 60 1008.4
20200409123404 46 305 6.0 16.0 0.00 0.60 0.00 61 1008.5
20200409123304 46 303 7.0 20.0 0.00 0.60 0.00 60 1008.4
20200409123204 46 302 7.0 20.0 0.00 0.60 0.00 61 1008.5
20200409123104 46 303 7.0 20.0 0.00 0.60 0.00 62 1008.5
20200409123005 46 303 7.0 20.0 0.00 0.60 0.00 61 1008.4
20200409122904 46 303 7.0 20.0 0.00 0.60 0.00 60 1008.4
20200409122804 46 302 7.0 20.0 0.00 0.60 0.00 60 1008.5
20200409122704 46 302 7.0 20.0 0.00 0.60 0.00 60 1008.4
20200409122605 46 303 7.0 20.0 0.00 0.60 0.00 60 1008.4
20200409122504 46 302 7.0 20.0 0.00 0.60 0.00 61 1008.3
20200409122404 46 303 7.0 20.0 0.00 0.60 0.00 62 1008.4
20200409122304 46 302 7.0 16.0 0.00 0.60 0.00 62 1008.3
20200409122203 46 302 7.0 16.0 0.00 0.60 0.00 62 1008.4
20200409122104 46 300 6.0 16.0 0.00 0.60 0.00 63 1008.3
20200409122004 46 302 6.0 14.0 0.00 0.60 0.00 61 1008.4
20200409121904 46 302 7.0 14.0 0.00 0.60 0.00 62 1008.3
20200409121804 46 303 7.0 16.0 0.00 0.60 0.00 62 1008.3
20200409121704 46 303 7.0 18.0 0.00 0.60 0.00 62 1008.3
20200409121604 46 302 7.0 18.0 0.00 0.60 0.00 62 1008.2
20200409121505 46 303 7.0 18.0 0.00 0.60 0.00 62 1008.3
20200409121404 46 303 7.0 18.0 0.00 0.60 0.00 63 1008.3
20200409121304 46 305 7.0 20.0 0.00 0.60 0.00 63 1008.2
20200409121205 46 305 8.0 20.0 0.00 0.60 0.00 63 1008.2
20200409121104 46 305 8.0 20.0 0.00 0.60 0.00 64 1008.2
20200409121004 46 302 8.0 20.0 0.00 0.60 0.00 63 1008.2
20200409120904 46 303 7.0 20.0 0.00 0.60 0.00 63 1008.2
20200409120804 46 302 6.0 20.0 0.00 0.60 0.00 64 1008.2
20200409120704 46 301 6.0 20.0 0.00 0.60 0.00 63 1008.2
20200409120604 46 300 7.0 20.0 0.00 0.60 0.00 64 1008.1
20200409120504 46 301 6.0 20.0 0.00 0.60 0.00 65 1008.1
20200409120405 45 299 6.0 20.0 0.00 0.60 0.00 65 1008.2
20200409120304 45 298 6.0 18.0 0.00 0.60 0.00 66 1008.1
20200409120204 45 297 6.0 18.0 0.00 0.60 0.00 66 1008.1
20200409120104 45 299 6.0 18.0 0.00 0.60 0.00 66 1008.0
20200409120026 45 302 6.0 18.0 0.00 0.60 0.00 67 1008.1
20200409115904 45 301 6.0 18.0 0.00 0.60 0.00 67 1008.1
20200409115804 46 299 7.0 18.0 0.00 0.60 0.00 67 1007.9
20200409115704 46 300 7.0 18.0 0.00 0.60 0.00 66 1007.9
20200409115604 46 299 7.0 18.0 0.00 0.60 0.00 66 1007.9
20200409115504 46 298 7.0 17.0 0.00 0.60 0.00 67 1007.9
20200409115405 46 299 8.0 17.0 0.00 0.60 0.00 67 1007.9
20200409115306 46 300 8.0 18.0 0.00 0.60 0.00 67 1007.9
20200409115204 46 300 7.0 18.0 0.00 0.60 0.00 67 1008.0
20200409115104 46 298 7.0 18.0 0.00 0.60 0.00 68 1007.9
20200409115005 46 297 8.0 18.0 0.00 0.60 0.00 67 1007.9
20200409114904 46 299 8.0 18.0 0.00 0.60 0.00 67 1007.8
20200409114804 46 299 7.0 20.0 0.00 0.60 0.00 67 1007.8
20200409114704 46 300 8.0 20.0 0.00 0.60 0.00 67 1007.8
20200409114605 46 301 7.0 20.0 0.00 0.60 0.00 68 1007.9
20200409114504 46 299 7.0 20.0 0.00 0.60 0.00 68 1007.8
20200409114404 46 299 7.0 20.0 0.00 0.60 0.00 70 1007.8
20200409114304 46 300 7.0 20.0 0.00 0.60 0.00 71 1007.8
20200409114205 46 297 8.0 20.0 0.00 0.60 0.00 70 1007.8
20200409114104 46 298 8.0 20.0 0.00 0.60 0.00 70 1007.8
20200409114004 46 298 8.0 20.0 0.00 0.60 0.00 70 1007.6
20200409113904 46 299 7.0 20.0 0.00 0.60 0.00 71 1007.7
20200409113803 46 300 7.0 19.0 0.00 0.60 0.00 71 1007.7
20200409113704 46 298 7.0 19.0 0.00 0.60 0.00 71 1007.7
20200409113604 46 297 7.0 17.0 0.00 0.60 0.00 72 1007.6
20200409113504 46 300 7.0 17.0 0.00 0.60 0.00 72 1007.6
20200409113404 46 299 7.0 17.0 0.00 0.60 0.00 72 1007.6
20200409113304 46 300 7.0 17.0 0.00 0.60 0.00 73 1007.7
20200409113204 46 303 7.0 16.0 0.00 0.60 0.00 73 1007.7
20200409113104 46 301 7.0 20.0 0.00 0.60 0.00 73 1007.6
20200409113016 46 299 7.0 20.0 0.00 0.60 0.00 74 1007.6
20200409112905 46 298 7.0 20.0 0.00 0.60 0.00 74 1007.5
20200409112804 46 299 7.0 20.0 0.00 0.60 0.00 74 1007.4
20200409112704 46 301 7.0 20.0 0.00 0.60 0.00 74 1007.4
20200409112603 46 303 7.0 20.0 0.00 0.60 0.00 74 1007.4
20200409112504 46 302 7.0 20.0 0.00 0.60 0.00 74 1007.4
20200409112404 46 301 7.0 20.0 0.00 0.60 0.00 75 1007.3
20200409112306 46 300 7.0 20.0 0.00 0.60 0.00 75 1007.3
20200409112204 46 300 6.0 20.0 0.00 0.60 0.00 76 1007.2
20200409112104 46 299 6.0 18.0 0.00 0.60 0.00 76 1007.3
20200409112004 46 298 6.0 18.0 0.00 0.60 0.00 76 1007.3
20200409111904 46 299 6.0 15.0 0.00 0.60 0.00 76 1007.3
20200409111804 46 296 6.0 15.0 0.00 0.60 0.00 77 1007.2
20200409111704 46 295 6.0 15.0 0.00 0.60 0.00 77 1007.2
20200409111604 46 294 7.0 14.0 0.00 0.60 0.00 77 1007.2
20200409111505 46 295 7.0 15.0 0.00 0.60 0.00 77 1007.3
20200409111404 46 298 7.0 16.0 0.00 0.60 0.00 77 1007.3
20200409111305 46 298 7.0 16.0 0.00 0.60 0.00 77 1007.3
20200409111206 47 296 7.0 16.0 0.00 0.60 0.00 77 1007.3
20200409111104 47 297 7.0 16.0 0.00 0.60 0.00 77 1007.4
20200409111004 47 299 8.0 16.0 0.00 0.60 0.00 77 1007.3
20200409110904 47 298 8.0 21.0 0.00 0.60 0.00 77 1007.3
20200409110804 47 297 8.0 23.0 0.00 0.60 0.00 77 1007.3
20200409110704 47 297 8.0 23.0 0.00 0.60 0.00 77 1007.3
20200409110604 47 297 8.0 23.0 0.00 0.60 0.00 78 1007.3
20200409110504 47 296 7.0 23.0 0.00 0.60 0.00 78 1007.1
20200409110404 47 291 7.0 23.0 0.00 0.60 0.00 78 1007.2
20200409110304 47 289 7.0 23.0 0.00 0.60 0.00 79 1007.2
20200409110205 47 291 7.0 23.0 0.00 0.60 0.00 78 1007.2
20200409110104 47 290 7.0 23.0 0.00 0.60 0.00 78 1007.3
20200409110004 47 288 7.0 23.0 0.00 0.60 0.00 79 1007.3
20200409105904 47 289 6.0 23.0 0.00 0.60 0.00 79 1007.2
20200409105804 47 291 6.0 22.0 0.00 0.60 0.00 79 1007.1
20200409105704 47 293 6.0 22.0 0.00 0.60 0.00 79 1007.0
20200409105605 47 292 5.0 22.0 0.00 0.60 0.00 79 1007.0
20200409105504 47 291 5.0 16.0 0.00 0.60 0.00 79 1007.1
20200409105404 47 295 5.0 16.0 0.00 0.60 0.00 79 1007.1
20200409105306 47 299 6.0 16.0 0.00 0.60 0.00 79 1007.1
20200409105204 47 300 6.0 16.0 0.00 0.60 0.00 79 1007.0
20200409105104 47 300 6.0 16.0 0.00 0.60 0.00 78 1007.0
20200409105004 47 304 6.0 16.0 0.00 0.60 0.00 79 1007.0
20200409104904 47 303 6.0 18.0 0.00 0.60 0.00 79 1007.0
20200409104803 48 300 6.0 18.0 0.00 0.60 0.00 79 1007.0
20200409104705 48 297 6.0 18.0 0.00 0.60 0.00 79 1006.9
20200409104604 48 299 6.0 18.0 0.00 0.60 0.00 79 1006.9
20200409104504 48 301 6.0 18.0 0.00 0.60 0.00 79 1006.9
20200409104404 48 299 6.0 18.0 0.00 0.60 0.00 79 1006.9
20200409104304 48 301 5.0 18.0 0.00 0.60 0.00 79 1006.7
20200409104204 48 303 5.0 18.0 0.00 0.60 0.00 80 1006.7
20200409104104 48 305 5.0 18.0 0.00 0.60 0.00 79 1006.8
20200409104005 48 301 5.0 18.0 0.00 0.60 0.00 80 1006.6